DB0WUN-13 Weather Reports


time (UTC)temp
C
wind
direction
speed
KPH
gust
KPH
rain 1hr
cm
rain 24hr
cm
rain mn
cm
humidity
%
barometer
mb
20260507082103 10 240 8.0 19.3 0.00 0.46 0.05 90 1011.5
20260507082008 10 246 9.7 19.3 0.00 0.46 0.05 90 1011.6
20260507081902 10 217 9.7 19.3 0.00 0.46 0.05 90 1011.5
20260507081802 10 237 8.0 19.3 0.00 0.46 0.05 90 1011.5
20260507081658 10 232 8.0 19.3 0.00 0.46 0.05 90 1011.5
20260507081602 10 226 8.0 19.3 0.00 0.46 0.05 90 1011.5
20260507081501 10 243 8.0 19.3 0.00 0.46 0.05 90 1011.5
20260507081356 10 230 8.0 19.3 0.00 0.46 0.05 90 1011.5
20260507081250 10 233 8.0 16.1 0.00 0.46 0.05 91 1011.5
20260507081146 10 203 8.0 14.5 0.00 0.46 0.05 91 1011.5
20260507081047 10 215 8.0 14.5 0.00 0.46 0.05 91 1011.5
20260507080948 9 199 8.0 14.5 0.00 0.46 0.05 91 1011.5
20260507080849 9 231 8.0 14.5 0.00 0.46 0.05 91 1011.5
20260507080753 9 212 8.0 16.1 0.00 0.46 0.05 91 1011.5
20260507080646 9 212 8.0 16.1 0.00 0.46 0.05 91 1011.4
20260507080545 9 241 8.0 16.1 0.00 0.46 0.05 91 1011.4
20260507080443 9 217 8.0 16.1 0.00 0.46 0.05 91 1011.4
20260507080344 9 215 8.0 16.1 0.00 0.46 0.05 91 1011.5
20260507080238 9 209 8.0 16.1 0.00 0.46 0.05 91 1011.4
20260507080151 9 200 6.4 16.1 0.00 0.46 0.05 91 1011.4
20260507080104 9 215 6.4 16.1 0.00 0.46 0.05 91 1011.4
20260507075952 9 236 6.4 16.1 0.00 0.46 0.05 91 1011.4
20260507075910 9 236 6.4 16.1 0.00 0.46 0.05 92 1011.3
20260507075825 9 245 6.4 16.1 0.00 0.46 0.05 92 1011.4
20260507075745 9 216 6.4 16.1 0.00 0.46 0.05 92 1011.3
20260507075710 9 217 6.4 16.1 0.00 0.46 0.05 92 1011.3
20260507075631 9 248 6.4 16.1 0.00 0.46 0.05 92 1011.3
20260507075544 9 220 6.4 16.1 0.00 0.46 0.05 92 1011.4
20260507075223 9 187 6.4 11.3 0.00 0.46 0.05 92 1011.3
20260507075127 9 241 6.4 12.9 0.00 0.46 0.05 92 1011.3
20260507075026 9 217 6.4 12.9 0.00 0.46 0.05 92 1011.3
20260507074931 9 234 6.4 12.9 0.00 0.46 0.05 92 1011.3
20260507074848 9 217 6.4 12.9 0.00 0.46 0.05 92 1011.3
20260507074809 9 215 6.4 12.9 0.00 0.46 0.05 92 1011.2
20260507074734 9 215 4.8 12.9 0.00 0.46 0.05 92 1011.2
20260507074652 9 205 4.8 12.9 0.00 0.46 0.05 92 1011.3
20260507074612 9 216 6.4 12.9 0.00 0.46 0.05 92 1011.2
20260507074318 9 216 6.4 12.9 0.00 0.46 0.05 92 1011.3
20260507074218 9 235 6.4 14.5 0.00 0.46 0.05 92 1011.3
20260507074120 9 192 6.4 16.1 0.00 0.46 0.05 92 1011.2
20260507074023 9 183 6.4 16.1 0.00 0.46 0.05 92 1011.2
20260507073918 9 215 6.4 16.1 0.00 0.46 0.05 92 1011.3
20260507073818 9 222 8.0 16.1 0.00 0.46 0.05 92 1011.2
20260507073719 9 218 8.0 16.1 0.00 0.46 0.05 92 1011.3
20260507073623 9 194 6.4 16.1 0.00 0.46 0.05 92 1011.3
20260507073522 9 173 6.4 16.1 0.00 0.46 0.05 92 1011.3
20260507073421 9 214 6.4 16.1 0.00 0.46 0.05 92 1011.2
20260507073315 9 254 6.4 16.1 0.00 0.46 0.05 92 1011.2
20260507073215 9 234 6.4 14.5 0.00 0.46 0.05 92 1011.2
20260507073117 9 216 6.4 12.9 0.00 0.46 0.05 92 1011.2
20260507073019 9 195 6.4 12.9 0.00 0.46 0.05 92 1011.2
20260507072915 9 210 4.8 12.9 0.00 0.46 0.05 92 1011.2
20260507072809 9 236 4.8 12.9 0.00 0.46 0.05 92 1011.2
20260507072712 9 249 4.8 12.9 0.00 0.46 0.05 92 1011.1
20260507072614 9 216 6.4 12.9 0.00 0.46 0.05 92 1011.1
20260507072517 9 217 4.8 12.9 0.00 0.46 0.05 92 1011.2
20260507072405 9 228 4.8 12.9 0.00 0.46 0.05 92 1011.2
20260507072307 9 178 4.8 12.9 0.00 0.46 0.05 92 1011.1
20260507072207 9 211 4.8 12.9 0.00 0.46 0.05 92 1011.1
20260507072109 9 153 6.4 12.9 0.00 0.46 0.05 92 1011.1
20260507072018 9 158 6.4 14.5 0.00 0.46 0.05 92 1011.1
20260507071903 9 209 6.4 14.5 0.00 0.46 0.05 92 1011.1
20260507071804 9 203 6.4 14.5 0.00 0.46 0.05 92 1011.1
20260507071702 9 199 6.4 14.5 0.00 0.46 0.05 92 1011.1
20260507071609 9 211 6.4 14.5 0.00 0.46 0.05 92 1011.1
20260507071508 9 217 6.4 14.5 0.00 0.46 0.05 92 1011.1
20260507071404 9 216 8.0 14.5 0.00 0.46 0.05 92 1011.1
20260507071303 9 223 8.0 14.5 0.00 0.46 0.05 92 1011.1
20260507071206 9 231 8.0 14.5 0.00 0.46 0.05 92 1011.1
20260507071110 9 212 6.4 14.5 0.00 0.46 0.05 92 1011.1
20260507071011 9 231 8.0 14.5 0.00 0.46 0.05 92 1011.1
20260507070902 8 207 8.0 14.5 0.00 0.46 0.05 92 1011.1
20260507070802 8 194 8.0 14.5 0.00 0.46 0.05 92 1011.1
20260507070659 8 215 8.0 14.5 0.00 0.46 0.05 92 1011.1
20260507070603 8 230 6.4 14.5 0.00 0.46 0.05 92 1011.1
20260507070500 8 236 6.4 14.5 0.00 0.46 0.05 92 1011.1
20260507070400 8 215 6.4 14.5 0.00 0.46 0.05 92 1011.1
20260507070301 8 217 6.4 14.5 0.00 0.46 0.05 92 1011.1
20260507070157 8 214 6.4 14.5 0.00 0.46 0.05 92 1011.0
20260507070107 8 216 6.4 14.5 0.00 0.46 0.05 92 1011.1
20260507065957 8 215 6.4 14.5 0.00 0.46 0.05 92 1011.0
20260507065859 8 212 6.4 14.5 0.00 0.46 0.05 92 1011.0
20260507065757 8 204 4.8 14.5 0.00 0.46 0.05 92 1011.1
20260507065655 8 198 4.8 14.5 0.00 0.46 0.05 92 1011.0
20260507065553 8 198 4.8 14.5 0.00 0.46 0.05 92 1011.0
20260507065456 8 215 4.8 11.3 0.00 0.46 0.05 92 1011.0
20260507065351 8 217 4.8 11.3 0.00 0.46 0.05 92 1011.0
20260507065250 8 269 4.8 11.3 0.00 0.46 0.05 92 1010.9
20260507065153 8 253 4.8 12.9 0.00 0.46 0.05 92 1011.1
20260507065050 8 208 4.8 12.9 0.00 0.46 0.05 92 1011.0
20260507064954 8 237 6.4 12.9 0.00 0.46 0.05 92 1011.0
20260507064920 8 214 6.4 14.5 0.00 0.46 0.05 92 1011.0
20260507064834 8 246 6.4 14.5 0.00 0.46 0.05 92 1011.0
20260507064804 8 217 6.4 14.5 0.00 0.46 0.05 92 1011.0
20260507064719 8 216 8.0 14.5 0.00 0.46 0.05 92 1011.0
20260507064626 8 198 8.0 16.1 0.00 0.46 0.05 91 1010.9
20260507064548 8 223 8.0 16.1 0.00 0.46 0.05 91 1011.0
20260507064241 8 205 8.0 16.1 0.00 0.46 0.05 91 1011.0
20260507064139 8 217 8.0 16.1 0.00 0.46 0.05 91 1010.9
20260507064037 8 274 8.0 16.1 0.00 0.46 0.05 91 1010.9
20260507063936 8 239 8.0 16.1 0.00 0.46 0.05 91 1011.0
20260507063839 8 217 8.0 16.1 0.00 0.46 0.05 91 1010.9
20260507063733 8 206 8.0 16.1 0.00 0.46 0.05 91 1010.9
20260507063633 8 198 8.0 16.1 0.00 0.46 0.05 91 1010.9
20260507063536 8 212 6.4 14.5 0.00 0.46 0.05 91 1010.9
20260507063433 8 241 6.4 14.5 0.00 0.46 0.05 91 1010.9
20260507063339 8 217 6.4 14.5 0.00 0.46 0.05 91 1010.9
20260507063232 8 201 6.4 14.5 0.00 0.46 0.05 91 1010.9
20260507063131 8 215 6.4 14.5 0.00 0.46 0.05 91 1010.8
20260507063036 8 217 6.4 14.5 0.00 0.46 0.05 91 1010.9
20260507062931 9 217 6.4 14.5 0.00 0.46 0.05 91 1010.8
20260507062835 9 194 6.4 14.5 0.00 0.46 0.05 91 1010.8
20260507062729 9 215 8.0 14.5 0.00 0.46 0.05 91 1010.8
20260507062628 9 220 6.4 14.5 0.00 0.46 0.05 91 1010.8
20260507062526 9 191 6.4 14.5 0.00 0.46 0.05 90 1010.9
20260507062425 9 260 6.4 14.5 0.00 0.46 0.05 90 1010.8
20260507062221 9 265 8.0 14.5 0.00 0.46 0.05 90 1010.8
20260507062123 9 217 8.0 16.1 0.00 0.46 0.05 90 1010.8
20260507062021 9 212 8.0 16.1 0.00 0.46 0.05 90 1010.8
20260507061918 9 196 8.0 16.1 0.00 0.46 0.05 90 1010.8
20260507061824 9 202 8.0 16.1 0.00 0.46 0.05 90 1010.8
20260507061717 9 227 8.0 16.1 0.00 0.46 0.05 90 1010.7
20260507061617 9 212 8.0 16.1 0.00 0.46 0.05 90 1010.7
20260507061518 9 217 8.0 16.1 0.00 0.46 0.05 90 1010.7
20260507061412 9 204 8.0 16.1 0.00 0.46 0.05 90 1010.7
20260507061312 9 195 8.0 16.1 0.00 0.46 0.05 90 1010.7
20260507061228 9 231 8.0 17.7 0.00 0.46 0.05 90 1010.7
20260507061144 9 226 8.0 17.7 0.00 0.46 0.05 90 1010.6
20260507061058 9 228 8.0 17.7 0.00 0.46 0.05 90 1010.7
20260507060958 9 255 8.0 17.7 0.00 0.46 0.05 91 1010.6
20260507060918 9 233 8.0 17.7 0.00 0.46 0.05 91 1010.6
20260507060832 9 216 9.7 19.3 0.00 0.46 0.05 91 1010.7
20260507060754 9 248 9.7 19.3 0.00 0.46 0.05 91 1010.6
20260507060709 9 215 9.7 19.3 0.00 0.46 0.05 91 1010.6
20260507060412 9 215 9.7 19.3 0.00 0.46 0.05 91 1010.6
20260507060326 9 210 9.7 19.3 0.00 0.46 0.05 91 1010.6
20260507060252 9 203 8.0 19.3 0.00 0.46 0.05 91 1010.6
20260507060208 9 216 8.0 19.3 0.00 0.46 0.05 91 1010.5
20260507060126 9 215 8.0 19.3 0.00 0.46 0.05 91 1010.6
20260507060020 9 215 8.0 19.3 0.00 0.46 0.05 91 1010.5
20260507055935 9 200 8.0 19.3 0.00 0.46 0.05 91 1010.5
20260507055854 9 165 6.4 19.3 0.00 0.46 0.05 91 1010.5
20260507055820 9 215 6.4 19.3 0.00 0.46 0.05 91 1010.4
20260507055733 9 220 6.4 19.3 0.00 0.46 0.05 91 1010.5
20260507055643 9 215 6.4 19.3 0.00 0.46 0.05 91 1010.4
20260507055342 9 202 6.4 19.3 0.00 0.46 0.05 91 1010.4
20260507055307 9 243 6.4 19.3 0.00 0.46 0.05 92 1010.4
20260507055233 9 232 6.4 16.1 0.00 0.46 0.05 92 1010.3
20260507055141 9 189 6.4 16.1 0.00 0.46 0.05 92 1010.4
20260507055101 9 258 6.4 14.5 0.00 0.46 0.05 92 1010.4
20260507054801 9 227 4.8 14.5 0.00 0.46 0.05 92 1010.3
20260507054702 9 186 4.8 14.5 0.00 0.46 0.05 92 1010.4
20260507054601 9 212 6.4 14.5 0.00 0.46 0.05 92 1010.4
20260507054501 9 191 6.4 14.5 0.00 0.46 0.05 92 1010.3
20260507054403 8 218 6.4 14.5 0.00 0.46 0.05 92 1010.3
20260507054301 8 248 6.4 14.5 0.00 0.46 0.05 92 1010.4
20260507054200 8 215 6.4 14.5 0.00 0.46 0.05 92 1010.3
20260507054102 8 216 6.4 14.5 0.00 0.46 0.05 92 1010.3
20260507054003 8 227 6.4 14.5 0.00 0.46 0.05 92 1010.3
20260507053904 8 198 6.4 14.5 0.00 0.46 0.05 92 1010.3
20260507053755 8 239 6.4 14.5 0.00 0.46 0.05 92 1010.2
20260507053654 8 216 6.4 14.5 0.00 0.46 0.05 92 1010.3
20260507053555 8 216 6.4 14.5 0.00 0.46 0.05 92 1010.3
20260507053455 8 226 6.4 14.5 0.00 0.46 0.05 92 1010.3
20260507053400 8 241 6.4 14.5 0.00 0.46 0.05 92 1010.3
20260507053255 8 253 6.4 14.5 0.00 0.46 0.05 92 1010.2
20260507053156 8 235 6.4 14.5 0.00 0.46 0.05 92 1010.2
20260507053053 8 229 8.0 14.5 0.00 0.46 0.05 92 1010.3
20260507052953 8 254 6.4 14.5 0.00 0.46 0.05 92 1010.2
20260507052854 8 216 8.0 14.5 0.00 0.46 0.05 92 1010.2
20260507052755 8 232 6.4 14.5 0.00 0.46 0.05 92 1010.2
20260507052653 8 233 6.4 14.5 0.00 0.46 0.05 92 1010.3
20260507052555 8 233 6.4 14.5 0.03 0.46 0.05 92 1010.3
20260507052453 8 248 6.4 14.5 0.03 0.46 0.05 92 1010.2
20260507052353 8 239 6.4 14.5 0.03 0.46 0.05 92 1010.3
20260507052256 8 219 6.4 14.5 0.03 0.46 0.05 92 1010.3
20260507052155 8 217 6.4 14.5 0.03 0.46 0.05 92 1010.2
20260507052047 8 235 6.4 16.1 0.03 0.46 0.05 92 1010.2
20260507051946 8 227 6.4 16.1 0.03 0.46 0.05 92 1010.2
20260507051846 8 228 6.4 16.1 0.03 0.46 0.05 92 1010.3
20260507051748 8 218 6.4 16.1 0.03 0.46 0.05 92 1010.2
20260507051648 8 245 6.4 16.1 0.03 0.46 0.05 92 1010.2
20260507051544 8 215 6.4 16.1 0.03 0.46 0.05 92 1010.2
20260507051443 8 221 6.4 16.1 0.03 0.46 0.05 92 1010.2
20260507051339 8 217 6.4 16.1 0.03 0.46 0.05 91 1010.2
20260507051243 8 235 4.8 16.1 0.03 0.46 0.05 92 1010.3
20260507051147 8 217 4.8 16.1 0.03 0.46 0.05 92 1010.3
20260507051036 8 212 4.8 14.5 0.03 0.46 0.05 91 1010.2
20260507050937 8 215 6.4 14.5 0.03 0.46 0.05 92 1010.2
20260507050836 8 257 6.4 14.5 0.03 0.46 0.05 92 1010.2
20260507050740 8 236 6.4 12.9 0.03 0.46 0.05 91 1010.2
20260507050635 8 196 6.4 12.9 0.03 0.46 0.05 92 1010.2
20260507050534 8 215 8.0 12.9 0.03 0.46 0.05 92 1010.2
20260507050433 8 220 8.0 16.1 0.03 0.46 0.05 92 1010.2
20260507050334 8 264 8.0 16.1 0.03 0.46 0.05 92 1010.2
20260507050235 8 235 8.0 16.1 0.03 0.46 0.05 91 1010.1
20260507050133 8 243 8.0 16.1 0.03 0.46 0.05 91 1010.2
20260507050032 8 217 8.0 16.1 0.03 0.46 0.05 91 1010.1
20260507045933 8 246 8.0 16.1 0.03 0.46 0.05 91 1010.1
20260507045833 8 236 6.4 16.1 0.03 0.46 0.05 91 1010.2
20260507045732 8 220 6.4 16.1 0.03 0.46 0.05 91 1010.2
20260507045630 8 218 6.4 16.1 0.03 0.46 0.05 91 1010.2
20260507045530 8 225 6.4 16.1 0.03 0.46 0.05 91 1010.2
20260507045433 8 262 4.8 12.9 0.03 0.46 0.05 91 1010.1
20260507045327 8 218 4.8 12.9 0.03 0.46 0.05 92 1010.1
20260507045230 8 237 4.8 12.9 0.03 0.46 0.05 92 1010.1
20260507045130 8 262 4.8 9.7 0.03 0.46 0.05 92 1010.1
20260507045027 8 244 4.8 9.7 0.03 0.46 0.05 92 1010.1
20260507044931 8 233 6.4 11.3 0.03 0.46 0.05 92 1010.1
20260507044828 8 231 6.4 11.3 0.03 0.46 0.05 92 1010.1
20260507044728 8 261 6.4 16.1 0.03 0.46 0.05 92 1010.1
20260507044627 8 217 6.4 16.1 0.03 0.46 0.05 92 1010.0
20260507044529 8 263 6.4 16.1 0.03 0.46 0.05 92 1010.1
20260507044427 8 186 6.4 16.1 0.03 0.46 0.05 92 1010.0
20260507044326 8 217 6.4 16.1 0.03 0.46 0.05 92 1010.0
20260507044226 8 258 6.4 16.1 0.03 0.46 0.05 92 1010.1
20260507044127 8 257 6.4 16.1 0.03 0.46 0.05 92 1010.1
20260507044031 8 217 6.4 16.1 0.03 0.46 0.05 92 1010.0
20260507043929 8 225 4.8 16.1 0.03 0.46 0.05 92 1010.1
20260507043828 8 216 4.8 16.1 0.03 0.46 0.05 92 1010.0
20260507043725 8 217 4.8 11.3 0.03 0.46 0.05 91 1010.1
20260507043630 8 217 4.8 11.3 0.03 0.46 0.05 91 1010.1
20260507043526 8 217 4.8 11.3 0.03 0.46 0.05 91 1010.0
20260507043425 8 216 4.8 14.5 0.03 0.46 0.05 91 1010.1
20260507043345 8 205 4.8 14.5 0.03 0.46 0.05 91 1010.0
20260507043255 8 229 6.4 14.5 0.03 0.46 0.05 91 1010.0
20260507043225 8 237 6.4 14.5 0.03 0.46 0.05 91 1010.0
20260507043147 8 234 6.4 14.5 0.03 0.46 0.05 91 1010.0
20260507043055 8 239 6.4 14.5 0.03 0.46 0.05 91 1010.0
20260507043024 8 217 6.4 14.5 0.03 0.46 0.05 91 1010.0
20260507042723 8 217 6.4 14.5 0.03 0.46 0.05 91 1009.9
20260507042621 8 238 6.4 14.5 0.03 0.46 0.03 91 1009.9
20260507042523 8 223 6.4 14.5 0.00 0.43 0.03 91 1010.0
20260507042426 8 230 6.4 14.5 0.00 0.43 0.03 91 1009.9
20260507042322 8 217 8.0 14.5 0.00 0.43 0.03 91 1009.9
20260507042222 8 244 8.0 14.5 0.00 0.43 0.03 91 1009.9
20260507042125 8 242 8.0 14.5 0.00 0.43 0.03 91 1009.8
20260507042025 8 238 8.0 12.9 0.00 0.43 0.03 91 1009.9
20260507041922 8 271 8.0 12.9 0.00 0.43 0.03 91 1009.8
20260507041824 8 272 8.0 16.1 0.00 0.43 0.03 91 1009.9
20260507041723 8 218 8.0 16.1 0.00 0.43 0.03 91 1009.9
20260507041622 8 248 8.0 16.1 0.00 0.43 0.03 91 1009.9
20260507041528 8 229 8.0 16.1 0.00 0.43 0.03 91 1009.8
20260507041421 8 287 8.0 16.1 0.00 0.43 0.03 91 1009.8
20260507041323 8 232 8.0 16.1 0.00 0.43 0.03 91 1009.7
20260507041226 8 241 8.0 16.1 0.00 0.43 0.03 91 1009.8
20260507041125 8 257 8.0 16.1 0.00 0.43 0.03 91 1009.7
20260507041024 8 238 8.0 16.1 0.00 0.43 0.03 91 1009.8
20260507040919 8 242 8.0 16.1 0.00 0.43 0.03 92 1009.8
20260507040818 8 225 6.4 16.1 0.00 0.43 0.03 92 1009.8
20260507040718 8 233 6.4 14.5 0.00 0.43 0.03 92 1009.8
20260507040627 8 229 6.4 14.5 0.00 0.43 0.03 92 1009.7
20260507040524 8 229 6.4 14.5 0.00 0.43 0.03 92 1009.7
20260507040417 8 227 6.4 14.5 0.00 0.43 0.03 92 1009.7
20260507040318 8 217 6.4 14.5 0.00 0.43 0.03 92 1009.7
20260507040228 8 262 6.4 14.5 0.00 0.43 0.03 92 1009.7
20260507040119 8 229 6.4 14.5 0.00 0.43 0.03 92 1009.7
20260507040022 8 220 6.4 11.3 0.00 0.43 0.03 92 1009.6
20260507035917 8 247 6.4 11.3 0.00 0.43 0.03 92 1009.7
20260507035819 8 229 6.4 11.3 0.00 0.43 0.03 92 1009.7
20260507035718 8 255 6.4 11.3 0.00 0.43 0.03 92 1009.7
20260507035617 8 216 6.4 11.3 0.00 0.43 0.03 92 1009.7
20260507035519 8 240 6.4 11.3 0.00 0.43 0.03 92 1009.7
20260507035419 8 245 6.4 11.3 0.00 0.43 0.03 92 1009.5
20260507035318 8 231 6.4 11.3 0.00 0.43 0.03 92 1009.6
20260507035220 8 230 6.4 11.3 0.00 0.43 0.03 92 1009.6
20260507035115 8 242 6.4 12.9 0.00 0.43 0.03 91 1009.7
20260507035018 8 216 6.4 12.9 0.00 0.43 0.03 91 1009.7
20260507034917 8 238 6.4 12.9 0.00 0.43 0.03 91 1009.6
20260507034842 8 250 4.8 12.9 0.00 0.43 0.03 91 1009.7
20260507034754 8 216 4.8 12.9 0.00 0.43 0.03 91 1009.7
20260507034721 8 241 4.8 12.9 0.00 0.46 0.03 91 1009.6
20260507034648 8 216 4.8 12.9 0.00 0.46 0.03 91 1009.6
20260507034604 8 216 4.8 12.9 0.00 0.46 0.03 91 1009.6
20260507034526 8 225 4.8 12.9 0.00 0.46 0.03 91 1009.6
20260507034216 9 211 4.8 12.9 0.00 0.46 0.03 91 1009.5
20260507034116 9 266 4.8 12.9 0.00 0.46 0.03 91 1009.5
20260507034015 9 233 3.2 9.7 0.00 0.46 0.03 91 1009.6
20260507033917 9 237 3.2 9.7 0.00 0.46 0.03 91 1009.5
20260507033817 9 231 3.2 9.7 0.00 0.46 0.03 91 1009.5
20260507033714 9 273 3.2 9.7 0.00 0.46 0.03 91 1009.5
20260507033619 9 234 4.8 14.5 0.00 0.46 0.03 91 1009.5
20260507033520 9 239 3.2 14.5 0.00 0.46 0.03 91 1009.5
20260507033417 9 243 3.2 14.5 0.00 0.46 0.03 91 1009.4
20260507033316 9 242 4.8 14.5 0.00 0.46 0.03 91 1009.5
20260507033212 9 255 4.8 14.5 0.00 0.46 0.03 91 1009.4
20260507033112 9 209 4.8 14.5 0.00 0.46 0.03 91 1009.4
20260507033015 9 232 4.8 14.5 0.00 0.46 0.03 91 1009.4
20260507032912 9 216 4.8 14.5 0.00 0.46 0.03 91 1009.4
20260507032814 9 213 6.4 14.5 0.00 0.46 0.03 91 1009.4
20260507032709 9 239 6.4 14.5 0.00 0.46 0.03 91 1009.4
20260507032612 9 244 6.4 16.1 0.00 0.46 0.03 91 1009.3
20260507032516 9 250 6.4 16.1 0.00 0.46 0.03 91 1009.3
20260507032412 9 218 6.4 16.1 0.00 0.46 0.03 91 1009.4
20260507032316 9 238 6.4 16.1 0.00 0.46 0.03 91 1009.4
20260507032212 9 217 6.4 16.1 0.00 0.46 0.03 91 1009.4
20260507032109 9 230 6.4 16.1 0.00 0.46 0.03 91 1009.3
20260507032017 9 223 6.4 16.1 0.00 0.46 0.03 91 1009.4
20260507031927 9 255 6.4 16.1 0.00 0.46 0.03 91 1009.4
20260507031843 9 234 6.4 16.1 0.00 0.46 0.03 91 1009.4
20260507031759 9 238 6.4 16.1 0.00 0.46 0.03 91 1009.4
20260507031723 9 211 4.8 12.9 0.00 0.46 0.03 91 1009.4
20260507031649 9 219 4.8 12.9 0.00 0.46 0.03 91 1009.4
20260507031607 9 239 4.8 12.9 0.00 0.46 0.03 91 1009.3
20260507031520 9 242 4.8 12.9 0.00 0.46 0.03 91 1009.4
20260507031206 9 261 4.8 12.9 0.00 0.46 0.03 91 1009.4
20260507031107 9 249 3.2 12.9 0.00 0.46 0.03 91 1009.4
20260507031015 9 241 3.2 12.9 0.00 0.46 0.03 91 1009.3
20260507030910 9 233 3.2 11.3 0.00 0.46 0.03 91 1009.4
20260507030810 9 227 3.2 11.3 0.00 0.46 0.03 92 1009.4
20260507030706 9 248 3.2 9.7 0.00 0.46 0.03 92 1009.4
20260507030608 9 245 4.8 9.7 0.00 0.46 0.03 92 1009.3
20260507030516 9 245 4.8 9.7 0.00 0.46 0.03 92 1009.3
20260507030408 9 245 4.8 9.7 0.00 0.46 0.03 92 1009.3
20260507030311 9 245 4.8 9.7 0.00 0.46 0.03 92 1009.3
20260507030205 9 258 4.8 11.3 0.00 0.46 0.03 92 1009.3
20260507030109 9 252 4.8 11.3 0.00 0.46 0.03 92 1009.4
20260507030017 9 264 4.8 11.3 0.00 0.46 0.03 92 1009.3
20260507025905 9 263 4.8 11.3 0.00 0.46 0.03 92 1009.3
20260507025813 9 255 4.8 11.3 0.00 0.46 0.03 92 1009.3
20260507025704 9 239 6.4 11.3 0.00 0.46 0.03 92 1009.3
20260507025603 9 244 6.4 14.5 0.00 0.46 0.03 92 1009.3
20260507025510 9 240 6.4 14.5 0.00 0.46 0.03 92 1009.3
20260507025405 9 272 6.4 14.5 0.00 0.46 0.03 92 1009.3
20260507025216 10 255 6.4 14.5 0.00 0.46 0.03 92 1009.3
20260507025142 10 253 6.4 14.5 0.00 0.46 0.03 92 1009.3
20260507025052 10 248 4.8 14.5 0.00 0.46 0.03 92 1009.2
20260507025009 10 253 4.8 14.5 0.00 0.46 0.03 92 1009.2
20260507024848 10 229 4.8 14.5 0.00 0.46 0.03 92 1009.2
20260507024804 10 248 3.2 11.3 0.00 0.46 0.03 92 1009.2
20260507024716 10 248 4.8 9.7 0.00 0.46 0.03 92 1009.2
20260507024641 10 233 4.8 9.7 0.00 0.46 0.03 92 1009.1
20260507024604 10 243 4.8 9.7 0.00 0.46 0.03 92 1009.2
20260507024320 10 249 4.8 11.3 0.00 0.46 0.03 92 1009.2
20260507024250 10 263 4.8 11.3 0.00 0.46 0.03 92 1009.2
20260507024208 10 263 4.8 11.3 0.00 0.46 0.03 92 1009.1
20260507024136 10 263 6.4 11.3 0.00 0.46 0.03 92 1009.1
20260507024006 10 269 6.4 11.3 0.00 0.46 0.03 92 1009.2
20260507023926 10 218 6.4 11.3 0.00 0.46 0.03 92 1009.2
20260507023830 10 253 4.8 11.3 0.00 0.46 0.03 92 1009.2
20260507023745 10 231 4.8 11.3 0.00 0.46 0.03 92 1009.2
20260507023701 10 260 4.8 11.3 0.00 0.46 0.03 92 1009.1
20260507023154 10 231 3.2 9.7 0.00 0.46 0.03 92 1009.2
20260507023119 10 220 3.2 9.7 0.00 0.46 0.03 92 1009.2
20260507023024 10 223 3.2 9.7 0.00 0.46 0.03 92 1009.2
20260507022928 10 218 3.2 9.7 0.00 0.46 0.03 92 1009.1
20260507022810 10 255 3.2 9.7 0.00 0.46 0.03 92 1009.2
20260507022734 10 255 3.2 9.7 0.00 0.46 0.03 92 1009.1
20260507022653 10 228 3.2 9.7 0.00 0.46 0.03 92 1009.2
20260507022612 10 222 3.2 9.7 0.00 0.46 0.03 92 1009.1
20260507022535 10 217 3.2 9.7 0.00 0.46 0.03 92 1009.1
20260507022247 10 217 3.2 9.7 0.00 0.46 0.03 92 1009.1
20260507022203 10 254 3.2 9.7 0.00 0.46 0.03 92 1009.1
20260507022114 10 216 3.2 9.7 0.00 0.46 0.03 92 1009.1
20260507022037 10 254 3.2 9.7 0.00 0.46 0.03 92 1009.1
20260507021952 10 241 3.2 9.7 0.00 0.46 0.03 92 1009.1
20260507021632 10 254 4.8 9.7 0.00 0.46 0.03 92 1009.0
20260507021527 10 220 3.2 9.7 0.00 0.46 0.03 92 1009.1
20260507021430 10 248 4.8 12.9 0.00 0.46 0.03 92 1009.1
20260507021328 10 234 4.8 12.9 0.00 0.46 0.03 92 1009.1
20260507021123 10 235 4.8 12.9 0.00 0.46 0.03 92 1009.1
20260507021027 10 239 4.8 12.9 0.00 0.46 0.03 92 1009.1
20260507020928 10 232 4.8 12.9 0.00 0.46 0.03 92 1009.1
20260507020823 10 217 4.8 12.9 0.00 0.46 0.03 92 1009.0
20260507020614 10 242 4.8 12.9 0.00 0.46 0.03 92 1009.1
20260507020515 10 216 4.8 12.9 0.00 0.46 0.03 92 1009.1
20260507020414 10 217 4.8 12.9 0.00 0.46 0.03 92 1009.0
20260507020315 10 212 4.8 12.9 0.00 0.46 0.03 92 1009.0
20260507020214 10 217 4.8 12.9 0.00 0.46 0.03 92 1009.0
20260507020106 10 217 3.2 12.9 0.00 0.46 0.03 92 1009.0
20260507020016 10 217 4.8 12.9 0.00 0.46 0.03 92 1009.0
20260507015904 10 226 4.8 12.9 0.00 0.46 0.03 92 1009.0
20260507015802 10 258 3.2 12.9 0.00 0.46 0.03 92 1009.0
20260507015707 10 210 3.2 9.7 0.00 0.46 0.03 92 1009.0
20260507015602 10 217 3.2 9.7 0.00 0.46 0.03 92 1009.0
20260507015501 10 223 3.2 9.7 0.00 0.46 0.03 92 1009.0
20260507015402 10 216 4.8 9.7 0.00 0.46 0.03 92 1009.0
20260507015301 10 217 4.8 9.7 0.00 0.46 0.03 92 1009.0
20260507015158 10 206 4.8 14.5 0.00 0.46 0.03 92 1009.0
20260507015053 10 206 4.8 14.5 0.00 0.46 0.03 92 1009.0
20260507014952 10 206 4.8 14.5 0.00 0.46 0.03 92 1009.0
20260507014854 10 217 4.8 14.5 0.00 0.46 0.03 92 1009.0
20260507014811 10 237 4.8 14.5 0.00 0.46 0.03 92 1009.0
20260507014726 10 241 4.8 14.5 0.00 0.46 0.03 92 1009.0
20260507014653 10 248 4.8 14.5 0.00 0.46 0.03 92 1009.0
20260507014606 10 257 4.8 14.5 0.00 0.46 0.03 92 1008.9
20260507014530 10 251 4.8 14.5 0.00 0.46 0.03 92 1008.9
20260507014447 10 220 3.2 14.5 0.00 0.46 0.03 92 1008.9
20260507014147 10 217 3.2 9.7 0.00 0.46 0.03 92 1009.0
20260507014043 10 227 3.2 9.7 0.00 0.46 0.03 92 1008.9
20260507013943 10 269 3.2 9.7 0.00 0.46 0.03 92 1009.0
20260507013844 10 234 4.8 11.3 0.00 0.46 0.03 92 1009.0
20260507013743 10 217 4.8 11.3 0.00 0.46 0.03 92 1009.0
20260507013642 10 257 4.8 11.3 0.00 0.46 0.03 92 1009.0
20260507013540 10 216 4.8 11.3 0.00 0.46 0.03 92 1008.9
20260507013436 10 216 4.8 11.3 0.00 0.46 0.03 92 1009.0
20260507013340 10 216 4.8 11.3 0.00 0.46 0.03 92 1009.0
20260507013231 10 239 4.8 11.3 0.00 0.46 0.03 92 1009.0
20260507013131 10 227 4.8 11.3 0.00 0.46 0.03 92 1009.0
20260507013025 10 216 4.8 11.3 0.00 0.46 0.03 92 1008.9
20260507012926 10 217 4.8 9.7 0.00 0.46 0.03 92 1008.9
20260507012825 10 216 4.8 12.9 0.00 0.46 0.03 92 1008.9
20260507012726 10 253 4.8 12.9 0.00 0.46 0.03 92 1008.9
20260507012626 10 212 4.8 12.9 0.00 0.46 0.03 92 1008.9
20260507012523 10 217 4.8 12.9 0.00 0.46 0.03 92 1008.9
20260507012417 10 215 4.8 12.9 0.00 0.46 0.03 92 1008.9
20260507012317 10 251 4.8 12.9 0.00 0.46 0.03 92 1008.9
20260507012220 10 216 4.8 12.9 0.00 0.46 0.03 92 1008.9
20260507012121 10 216 6.4 12.9 0.00 0.46 0.03 92 1009.0
20260507012022 10 210 6.4 12.9 0.00 0.46 0.03 92 1008.9
20260507011919 10 217 6.4 12.9 0.00 0.46 0.03 92 1008.9
20260507011818 10 241 6.4 12.9 0.00 0.46 0.03 92 1008.9
20260507011718 10 217 6.4 12.9 0.00 0.46 0.03 92 1008.9
20260507011617 10 256 6.4 12.9 0.00 0.46 0.03 92 1008.9
20260507011523 10 217 6.4 12.9 0.00 0.46 0.03 92 1008.8
20260507011408 10 231 8.0 14.5 0.00 0.46 0.03 92 1008.9
20260507011306 10 249 8.0 14.5 0.00 0.46 0.03 92 1008.9
20260507011212 10 258 6.4 14.5 0.00 0.46 0.03 92 1008.9
20260507011105 10 266 6.4 14.5 0.00 0.46 0.03 92 1008.8
20260507011013 10 219 8.0 14.5 0.00 0.46 0.03 92 1008.9
20260507010908 10 243 8.0 14.5 0.00 0.46 0.03 92 1008.8
20260507010805 10 216 6.4 14.5 0.00 0.46 0.03 92 1008.8
20260507010614 10 215 6.4 14.5 0.00 0.46 0.03 92 1008.9
20260507010514 10 246 4.8 14.5 0.00 0.46 0.03 92 1008.9
20260507010430 10 243 4.8 14.5 0.00 0.46 0.03 92 1008.8
20260507010352 10 227 4.8 14.5 0.00 0.46 0.03 92 1008.9
20260507010230 10 217 6.4 14.5 0.00 0.46 0.03 92 1008.9
20260507010136 10 174 4.8 14.5 0.00 0.46 0.03 92 1008.9
20260507010046 10 239 4.8 14.5 0.00 0.46 0.03 93 1008.9
20260507010004 10 217 4.8 12.9 0.00 0.46 0.03 93 1008.9
20260507005918 10 203 4.8 12.9 0.00 0.46 0.03 93 1008.9
20260507005606 10 217 6.4 12.9 0.00 0.46 0.03 92 1008.9
20260507005510 10 216 6.4 12.9 0.00 0.46 0.03 92 1008.9
20260507005409 10 247 6.4 12.9 0.00 0.46 0.03 93 1008.9
20260507005308 10 251 4.8 12.9 0.00 0.46 0.03 93 1008.9
20260507005204 10 222 4.8 12.9 0.00 0.46 0.03 92 1008.9
20260507005109 10 209 4.8 12.9 0.00 0.46 0.03 93 1008.9
20260507005003 10 239 4.8 12.9 0.00 0.46 0.03 92 1008.9
20260507004902 10 215 4.8 11.3 0.00 0.46 0.03 92 1008.9
20260507004758 10 216 4.8 11.3 0.00 0.46 0.03 92 1008.9
20260507004652 10 216 4.8 11.3 0.00 0.46 0.03 92 1008.8
20260507004553 10 213 4.8 11.3 0.00 0.46 0.03 92 1008.8
20260507004451 10 265 4.8 12.9 0.00 0.46 0.03 92 1008.8
20260507004352 10 215 4.8 12.9 0.00 0.46 0.03 92 1008.9
20260507004248 10 210 4.8 12.9 0.00 0.46 0.03 92 1008.8
20260507004148 10 216 4.8 12.9 0.00 0.46 0.03 92 1008.8
20260507004047 10 215 4.8 12.9 0.00 0.46 0.03 92 1008.8
20260507003947 10 239 4.8 12.9 0.00 0.46 0.03 92 1008.8
20260507003848 10 236 4.8 12.9 0.00 0.46 0.03 92 1008.8
20260507003745 10 186 4.8 12.9 0.00 0.46 0.03 92 1008.8
20260507003642 10 247 4.8 12.9 0.00 0.46 0.03 92 1008.8
20260507003541 10 247 4.8 12.9 0.00 0.46 0.03 92 1008.8
20260507003439 10 217 3.2 12.9 0.00 0.46 0.03 92 1008.7
20260507003338 10 215 3.2 12.9 0.03 0.46 0.03 92 1008.7
20260507003240 10 217 3.2 12.9 0.03 0.46 0.03 92 1008.8
20260507003138 10 216 3.2 12.9 0.03 0.46 0.03 92 1008.7
20260507003041 10 216 3.2 12.9 0.03 0.46 0.03 92 1008.8
20260507002939 10 239 3.2 12.9 0.03 0.46 0.03 92 1008.8
20260507002836 10 233 3.2 12.9 0.03 0.46 0.03 92 1008.8
20260507002735 10 217 3.2 8.0 0.03 0.46 0.03 92 1008.8
20260507002637 10 239 3.2 8.0 0.03 0.46 0.03 92 1008.8
20260507002539 10 249 3.2 8.0 0.03 0.46 0.03 92 1008.9
20260507002434 10 239 3.2 8.0 0.03 0.46 0.03 92 1008.8
20260507002336 10 217 3.2 8.0 0.03 0.46 0.03 92 1008.7
20260507002234 10 217 3.2 8.0 0.03 0.46 0.03 92 1008.8
20260507002134 10 217 3.2 8.0 0.03 0.46 0.03 92 1008.7
20260507002033 10 217 3.2 11.3 0.03 0.46 0.03 92 1008.8
20260507001931 10 217 4.8 11.3 0.03 0.46 0.03 92 1008.8
20260507001832 10 215 4.8 11.3 0.03 0.46 0.03 92 1008.8
20260507001756 10 254 4.8 11.3 0.03 0.46 0.03 92 1008.9
20260507001732 10 222 4.8 11.3 0.03 0.46 0.03 92 1008.7
20260507001639 10 217 4.8 11.3 0.03 0.46 0.03 92 1008.8
20260507001606 10 230 4.8 11.3 0.03 0.46 0.03 92 1008.8
20260507001520 10 218 4.8 11.3 0.03 0.46 0.03 92 1008.8
20260507001426 10 215 4.8 11.3 0.03 0.46 0.03 92 1008.8
20260507001352 10 180 4.8 11.3 0.03 0.46 0.03 92 1008.8
20260507001030 10 181 4.8 11.3 0.03 0.46 0.03 92 1008.8
20260507000925 10 218 4.8 11.3 0.03 0.46 0.03 92 1008.9
20260507000824 10 229 4.8 11.3 0.03 0.46 0.03 92 1008.9
20260507000723 10 260 4.8 11.3 0.03 0.46 0.03 92 1008.9
20260507000628 10 202 4.8 11.3 0.03 0.46 0.03 92 1008.9
20260507000528 10 218 3.2 11.3 0.03 0.46 0.03 92 1008.8
20260507000422 10 217 3.2 11.3 0.03 0.46 0.03 92 1008.9
20260507000324 10 233 3.2 11.3 0.03 0.46 0.03 92 1009.0
20260507000226 10 187 3.2 11.3 0.03 0.46 0.03 92 1008.9
20260507000119 10 210 3.2 8.0 0.03 0.46 0.03 92 1008.9
20260507000017 10 216 3.2 8.0 0.03 0.46 0.03 92 1008.9
20260506235912 10 241 3.2 9.7 0.03 0.46 0.03 92 1008.9
20260506235812 10 243 4.8 9.7 0.03 0.46 0.03 92 1008.8
20260506235712 10 217 3.2 9.7 0.03 0.46 0.03 92 1008.8
20260506235613 10 217 3.2 9.7 0.03 0.46 0.03 92 1008.8
20260506235514 10 217 3.2 9.7 0.03 0.46 0.03 92 1008.8
20260506235404 10 217 4.8 9.7 0.03 0.46 0.03 92 1008.8
20260506235309 10 217 4.8 11.3 0.03 0.46 0.03 92 1008.9
20260506235227 10 217 4.8 11.3 0.03 0.46 0.03 92 1008.9
20260506235144 10 246 4.8 11.3 0.03 0.46 0.03 92 1008.9
20260506235107 10 244 4.8 11.3 0.03 0.46 0.03 92 1008.8
20260506235025 10 217 4.8 11.3 0.03 0.46 0.03 92 1008.9
20260506234947 10 216 4.8 11.3 0.03 0.46 0.03 92 1008.9
20260506234908 10 217 6.4 11.3 0.03 0.46 0.03 92 1008.8
20260506234602 10 220 6.4 11.3 0.03 0.46 0.03 92 1008.9
20260506234459 10 220 6.4 11.3 0.03 0.46 0.03 92 1008.8
20260506234357 10 216 8.0 12.9 0.03 0.46 0.03 92 1008.9
20260506234255 10 238 8.0 16.1 0.03 0.46 0.03 92 1008.9
20260506234156 10 220 8.0 16.1 0.03 0.46 0.03 92 1008.9
20260506234055 10 250 8.0 16.1 0.03 0.46 0.03 92 1008.8
20260506233955 10 217 8.0 16.1 0.03 0.46 0.03 92 1008.8
20260506233907 10 227 6.4 16.1 0.00 0.43 0.00 92 1008.8
20260506233856 10 234 8.0 16.1 0.03 0.46 0.03 92 1008.8
20260506233839 10 215 6.4 14.5 0.00 0.43 0.00 92 1008.7
20260506233804 10 215 8.0 16.1 0.03 0.46 0.03 92 1008.8
20260506233641 10 231 6.4 16.1 0.03 0.46 0.00 92 1008.8
20260506233559 10 224 6.4 16.1 0.03 0.46 0.00 92 1008.8
20260506233307 10 215 6.4 14.5 0.00 0.43 0.00 92 1008.7
20260506233221 10 239 4.8 14.5 0.00 0.43 0.00 92 1008.7
20260506233128 10 218 4.8 14.5 0.00 0.43 0.00 92 1008.8
20260506233045 10 217 4.8 11.3 0.00 0.43 0.00 92 1008.8
20260506233007 10 272 4.8 11.3 0.00 0.43 0.00 92 1008.7
20260506232928 10 217 4.8 11.3 0.00 0.43 0.00 92 1008.7
20260506232851 10 217 4.8 11.3 0.00 0.43 0.00 92 1008.7
20260506232538 10 208 4.8 11.3 0.00 0.43 0.00 92 1008.7
20260506232435 10 247 4.8 11.3 0.00 0.43 0.00 92 1008.8
20260506232336 10 233 4.8 12.9 0.00 0.43 0.00 92 1008.7
20260506232243 10 234 4.8 12.9 0.00 0.43 0.00 92 1008.7
20260506232136 10 215 4.8 12.9 0.00 0.43 0.00 92 1008.7
20260506232040 10 194 4.8 12.9 0.00 0.43 0.00 92 1008.8
20260506231932 10 235 4.8 12.9 0.00 0.43 0.00 92 1008.8
20260506231831 10 220 4.8 12.9 0.00 0.43 0.00 92 1008.7
20260506231731 10 262 4.8 12.9 0.00 0.43 0.00 92 1008.7
20260506231629 10 257 4.8 12.9 0.00 0.43 0.00 92 1008.7
20260506231530 10 256 4.8 12.9 0.00 0.43 0.00 92 1008.7
20260506231429 10 217 4.8 12.9 0.00 0.43 0.00 92 1008.7
20260506231328 10 231 3.2 11.3 0.00 0.43 0.00 92 1008.6
20260506231235 10 260 3.2 11.3 0.00 0.43 0.00 92 1008.6
20260506231123 10 272 3.2 11.3 0.00 0.43 0.00 92 1008.6
20260506231021 10 238 1.6 9.7 0.00 0.43 0.00 92 1008.7
20260506230920 10 215 1.6 8.0 0.00 0.43 0.00 92 1008.6
20260506230820 10 210 1.6 8.0 0.00 0.43 0.00 92 1008.6
20260506230729 10 238 1.6 8.0 0.00 0.43 0.00 92 1008.6
20260506230616 10 215 1.6 8.0 0.00 0.43 0.00 92 1008.6
20260506230521 10 215 3.2 8.0 0.00 0.43 0.00 92 1008.6
20260506230416 10 215 3.2 8.0 0.00 0.43 0.00 92 1008.6
20260506230313 10 215 3.2 8.0 0.00 0.43 0.00 92 1008.5
20260506230211 10 215 3.2 8.0 0.00 0.43 0.00 92 1008.6
20260506230116 10 215 3.2 8.0 0.00 0.43 0.00 92 1008.5
20260506230018 10 217 3.2 8.0 0.00 0.43 0.00 92 1008.5
20260506225902 10 216 3.2 8.0 0.00 0.43 0.00 92 1008.5
20260506225801 10 232 3.2 8.0 0.00 0.43 0.00 92 1008.5
20260506225622 11 210 3.2 9.7 0.00 0.43 0.00 92 1008.5
20260506225545 11 263 3.2 9.7 0.00 0.43 0.00 92 1008.5
20260506225513 11 231 3.2 9.7 0.00 0.43 0.00 92 1008.5
20260506225437 10 217 3.2 9.7 0.00 0.43 0.00 92 1008.5
20260506225357 10 217 3.2 9.7 0.00 0.43 0.00 92 1008.4
20260506225055 11 217 3.2 9.7 0.00 0.43 0.00 92 1008.4
20260506224957 10 217 3.2 9.7 0.00 0.43 0.00 93 1008.4
20260506224852 10 239 3.2 9.7 0.00 0.43 0.00 92 1008.4
20260506224755 11 250 3.2 9.7 0.00 0.43 0.00 92 1008.4
20260506224652 10 241 3.2 9.7 0.00 0.43 0.00 92 1008.4
20260506224552 10 219 3.2 9.7 0.00 0.43 0.00 92 1008.4
20260506224449 10 258 1.6 9.7 0.00 0.43 0.00 92 1008.4
20260506224349 10 216 1.6 8.0 0.00 0.43 0.00 92 1008.4
20260506224251 10 219 1.6 8.0 0.00 0.43 0.00 92 1008.5
20260506224150 10 252 1.6 8.0 0.00 0.43 0.00 92 1008.4
20260506224047 11 280 1.6 8.0 0.00 0.43 0.00 92 1008.4
20260506223948 10 244 1.6 8.0 0.00 0.43 0.00 92 1008.3
20260506223848 10 219 1.6 8.0 0.00 0.43 0.00 92 1008.3
20260506223751 11 217 1.6 6.4 0.00 0.43 0.00 92 1008.4
20260506223650 11 217 1.6 6.4 0.00 0.43 0.00 92 1008.3
20260506223546 11 217 1.6 6.4 0.03 0.43 0.00 92 1008.4
20260506223442 11 217 1.6 6.4 0.03 0.43 0.00 92 1008.4
20260506223338 11 217 3.2 8.0 0.03 0.43 0.00 92 1008.4
20260506223241 11 217 3.2 9.7 0.03 0.43 0.00 92 1008.4
20260506223137 11 225 3.2 9.7 0.03 0.43 0.00 92 1008.3
20260506223037 11 222 3.2 9.7 0.03 0.43 0.00 92 1008.3
20260506222932 11 244 3.2 11.3 0.03 0.43 0.00 92 1008.3
20260506222833 11 236 3.2 11.3 0.03 0.43 0.00 92 1008.3
20260506222728 11 249 4.8 11.3 0.03 0.43 0.00 92 1008.3
20260506222627 11 249 4.8 11.3 0.03 0.43 0.00 92 1008.2
20260506222526 10 249 4.8 11.3 0.03 0.43 0.00 92 1008.2
20260506222426 10 249 6.4 11.3 0.03 0.43 0.00 92 1008.1
20260506222327 10 265 4.8 11.3 0.03 0.43 0.00 92 1008.2
20260506222225 11 251 4.8 11.3 0.03 0.43 0.00 92 1008.1
20260506222123 11 265 4.8 11.3 0.03 0.43 0.00 92 1008.1
20260506222022 11 294 4.8 11.3 0.03 0.43 0.00 92 1008.2
20260506221924 11 239 4.8 9.7 0.03 0.43 0.00 92 1008.1
20260506221821 11 278 4.8 9.7 0.03 0.43 0.00 92 1008.2
20260506221715 11 267 4.8 9.7 0.03 0.43 0.00 92 1008.2
20260506221614 11 269 4.8 9.7 0.03 0.43 0.00 92 1008.2
20260506221518 11 272 3.2 9.7 0.05 0.43 0.00 92 1008.2
20260506221414 11 264 3.2 9.7 0.05 0.43 0.00 92 1008.2
20260506221314 11 240 3.2 8.0 0.05 0.43 0.00 92 1008.2
20260506221212 11 274 3.2 8.0 0.05 0.43 0.00 92 1008.2
20260506221115 11 279 3.2 8.0 0.05 0.43 0.00 92 1008.2
20260506221016 11 262 3.2 8.0 0.05 0.43 0.00 92 1008.2
20260506220911 11 236 3.2 8.0 0.05 0.43 0.00 92 1008.3
20260506220814 11 250 1.6 8.0 0.05 0.43 0.00 92 1008.3
20260506220709 11 233 1.6 8.0 0.05 0.43 0.00 92 1008.2
20260506220606 11 217 1.6 6.4 0.08 0.43 0.00 92 1008.3
20260506220504 11 210 1.6 6.4 0.08 0.43 0.00 92 1008.2
20260506220402 11 224 1.6 6.4 0.10 0.43 0.00 92 1008.2
20260506220255 11 233 1.6 6.4 0.10 0.43 0.00 92 1008.1
20260506220202 11 233 1.6 6.4 0.10 0.43 0.00 92 1008.2
20260506220106 11 233 1.6 6.4 0.13 0.43 0.00 92 1008.1
20260506215950 11 232 1.6 6.4 0.15 0.43 0.43 92 1008.1
20260506215857 11 253 1.6 6.4 0.15 0.43 0.43 92 1008.1
20260506215749 11 253 1.6 6.4 0.15 0.43 0.43 92 1008.2
20260506215652 11 243 3.2 6.4 0.15 0.43 0.43 92 1008.2
20260506215603 11 243 1.6 6.4 0.18 0.43 0.43 92 1008.2
20260506215507 11 239 3.2 6.4 0.18 0.43 0.43 92 1008.1
20260506215439 11 239 3.2 6.4 0.18 0.43 0.43 92 1008.1
20260506215406 11 242 3.2 6.4 0.20 0.43 0.43 92 1008.1
20260506215334 11 242 3.2 6.4 0.20 0.43 0.43 92 1008.1
20260506215254 11 239 3.2 6.4 0.23 0.43 0.43 92 1008.2
20260506214946 11 260 3.2 8.0 0.23 0.43 0.43 92 1008.2
20260506214848 11 279 3.2 8.0 0.23 0.43 0.43 92 1008.2
20260506214748 11 231 3.2 8.0 0.23 0.43 0.43 92 1008.2
20260506214654 11 250 3.2 8.0 0.25 0.43 0.43 92 1008.2
20260506214547 11 247 3.2 8.0 0.25 0.43 0.43 92 1008.2
20260506214441 11 218 3.2 8.0 0.28 0.43 0.43 92 1008.2
20260506214341 11 255 3.2 8.0 0.28 0.43 0.43 92 1008.2
20260506214239 11 241 3.2 8.0 0.30 0.43 0.43 92 1008.2
20260506214145 11 241 3.2 8.0 0.30 0.43 0.43 92 1008.2
20260506213932 11 259 4.8 8.0 0.30 0.43 0.43 92 1008.2
20260506213833 11 220 4.8 8.0 0.30 0.43 0.43 92 1008.2
20260506213731 11 220 4.8 8.0 0.30 0.43 0.43 92 1008.2
20260506213632 11 251 4.8 8.0 0.30 0.43 0.43 92 1008.2
20260506213430 11 251 4.8 9.7 0.30 0.43 0.43 92 1008.2
20260506213331 11 237 4.8 9.7 0.30 0.43 0.43 92 1008.2
20260506213229 11 252 4.8 9.7 0.30 0.43 0.43 92 1008.2
20260506213134 11 263 4.8 9.7 0.30 0.43 0.43 92 1008.2
20260506213026 11 217 4.8 9.7 0.30 0.43 0.43 92 1008.2
20260506212922 11 281 4.8 9.7 0.30 0.43 0.43 92 1008.3
20260506212822 11 265 4.8 9.7 0.33 0.43 0.43 92 1008.3
20260506212721 11 265 4.8 9.7 0.33 0.43 0.43 92 1008.3
20260506212619 11 256 4.8 9.7 0.33 0.43 0.43 92 1008.3
20260506212521 11 234 4.8 9.7 0.33 0.43 0.43 92 1008.3
20260506212412 11 248 4.8 9.7 0.33 0.43 0.43 92 1008.3
20260506212312 11 238 4.8 9.7 0.33 0.43 0.43 92 1008.3
20260506212211 11 217 4.8 11.3 0.33 0.43 0.43 92 1008.3
20260506212111 11 217 4.8 11.3 0.33 0.43 0.43 92 1008.3
20260506212020 11 231 4.8 11.3 0.33 0.43 0.43 92 1008.3
20260506211911 11 220 4.8 11.3 0.33 0.43 0.43 92 1008.2
20260506211811 11 220 4.8 11.3 0.33 0.43 0.43 92 1008.4
20260506211713 11 219 4.8 11.3 0.33 0.43 0.43 92 1008.3
20260506211611 11 191 4.8 11.3 0.33 0.43 0.41 92 1008.3
20260506211521 11 229 4.8 11.3 0.33 0.41 0.41 92 1008.3
20260506211412 11 227 4.8 11.3 0.33 0.41 0.41 92 1008.3
20260506211309 11 217 4.8 11.3 0.33 0.41 0.38 91 1008.3
20260506211209 11 217 4.8 9.7 0.33 0.38 0.38 91 1008.3
20260506211111 11 255 6.4 11.3 0.33 0.38 0.38 91 1008.2
20260506211018 11 256 6.4 11.3 0.33 0.38 0.38 91 1008.3
20260506210906 11 234 6.4 11.3 0.33 0.38 0.38 91 1008.2
20260506210816 11 248 6.4 11.3 0.33 0.38 0.38 91 1008.3
20260506210706 11 227 6.4 11.3 0.30 0.36 0.36 91 1008.3
20260506210607 11 257 6.4 11.3 0.30 0.36 0.36 91 1008.3
20260506210525 11 263 6.4 11.3 0.30 0.36 0.33 91 1008.3
20260506210404 11 213 6.4 12.9 0.28 0.33 0.33 91 1008.3
20260506210303 11 217 6.4 14.5 0.28 0.33 0.33 91 1008.4
20260506210206 11 215 6.4 14.5 0.28 0.33 0.33 91 1008.2
20260506210116 11 233 4.8 14.5 0.25 0.33 0.30 91 1008.3
20260506210007 11 236 4.8 14.5 0.23 0.30 0.30 91 1008.3
20260506205902 11 217 6.4 14.5 0.23 0.30 0.28 91 1008.3
20260506205803 11 217 6.4 14.5 0.23 0.28 0.28 91 1008.4
20260506205705 11 233 6.4 14.5 0.23 0.28 0.28 91 1008.3
20260506205623 11 217 6.4 14.5 0.23 0.28 0.25 91 1008.3
20260506205533 11 217 6.4 14.5 0.20 0.25 0.25 91 1008.3
20260506205454 11 228 6.4 14.5 0.20 0.25 0.23 91 1008.3
20260506205423 11 215 6.4 14.5 0.18 0.23 0.23 91 1008.3
20260506205349 11 217 6.4 16.1 0.18 0.23 0.23 91 1008.4
20260506205307 11 217 6.4 16.1 0.15 0.23 0.23 91 1008.3
20260506205003 11 216 6.4 16.1 0.15 0.23 0.20 91 1008.3
20260506204924 11 235 6.4 16.1 0.15 0.20 0.20 91 1008.4
20260506204849 11 275 6.4 16.1 0.15 0.20 0.18 91 1008.3
20260506204809 11 260 6.4 16.1 0.13 0.18 0.18 91 1008.3
20260506204720 11 227 6.4 16.1 0.13 0.18 0.15 90 1008.3
20260506204626 11 238 6.4 16.1 0.10 0.15 0.15 90 1008.3
20260506204551 11 243 6.4 16.1 0.10 0.15 0.15 90 1008.2
20260506204301 11 247 4.8 16.1 0.08 0.15 0.15 90 1008.3
20260506204226 11 195 4.8 14.5 0.08 0.15 0.15 90 1008.2
20260506204143 11 215 4.8 14.5 0.08 0.15 0.15 90 1008.2
20260506204045 11 195 4.8 14.5 0.08 0.15 0.15 90 1008.3
20260506204005 11 212 4.8 14.5 0.08 0.15 0.15 90 1008.3
20260506203925 11 187 3.2 14.5 0.08 0.15 0.13 90 1008.2
20260506203850 11 195 3.2 11.3 0.05 0.13 0.13 90 1008.2
20260506203800 11 215 1.6 11.3 0.05 0.13 0.13 90 1008.2
20260506203450 11 215 1.6 6.4 0.05 0.13 0.13 90 1008.2
20260506203346 11 215 1.6 6.4 0.05 0.13 0.13 90 1008.2
20260506203246 11 239 1.6 6.4 0.05 0.13 0.13 90 1008.2
20260506203145 11 218 1.6 6.4 0.05 0.13 0.13 90 1008.1
20260506203042 11 224 1.6 6.4 0.05 0.13 0.13 90 1008.2
20260506202942 11 240 1.6 3.2 0.05 0.13 0.13 90 1008.1
20260506202837 11 240 1.6 3.2 0.05 0.13 0.10 90 1008.1
20260506202737 11 240 0.0 3.2 0.05 0.10 0.10 90 1008.2
20260506202635 11 241 0.0 3.2 0.05 0.10 0.10 90 1008.1
20260506202429 11 241 1.6 4.8 0.05 0.10 0.10 90 1008.1
20260506202330 11 241 1.6 4.8 0.05 0.10 0.10 90 1008.1
20260506202231 11 241 1.6 6.4 0.05 0.10 0.10 90 1008.2
20260506202131 11 241 1.6 6.4 0.05 0.10 0.10 89 1008.0
20260506202036 11 241 1.6 6.4 0.05 0.10 0.08 89 1008.1
20260506201930 11 241 1.6 6.4 0.03 0.08 0.08 89 1008.0
20260506201826 11 240 1.6 6.4 0.03 0.08 0.08 89 1008.1
20260506201727 11 240 1.6 6.4 0.03 0.08 0.08 89 1008.1
20260506201626 11 246 1.6 6.4 0.03 0.08 0.08 89 1008.1
20260506201538 11 236 1.6 6.4 0.03 0.08 0.08 89 1008.0
20260506201427 11 236 1.6 6.4 0.03 0.08 0.08 89 1008.1
20260506201324 11 236 1.6 6.4 0.03 0.08 0.05 89 1008.1
20260506201224 11 259 1.6 6.4 0.00 0.05 0.05 89 1008.1
20260506201123 11 219 1.6 6.4 0.00 0.05 0.05 89 1008.1
20260506200919 11 219 3.2 8.0 0.00 0.05 0.05 89 1008.1
20260506200815 11 217 3.2 8.0 0.00 0.05 0.05 89 1008.0
20260506200714 11 217 3.2 8.0 0.00 0.05 0.05 89 1008.0
20260506200615 11 217 3.2 8.0 0.00 0.05 0.05 89 1008.0
20260506200521 11 220 3.2 8.0 0.00 0.05 0.05 89 1008.1
20260506200412 11 220 3.2 8.0 0.00 0.05 0.05 89 1008.1
20260506200310 11 215 3.2 8.0 0.00 0.05 0.05 89 1008.0
20260506200207 11 215 3.2 8.0 0.00 0.05 0.05 89 1008.0
20260506200128 11 215 3.2 8.0 0.00 0.05 0.05 89 1008.0
20260506200007 11 217 3.2 8.0 0.00 0.05 0.05 89 1008.0
20260506195906 11 217 3.2 8.0 0.00 0.05 0.05 89 1008.0
20260506195803 11 217 3.2 8.0 0.00 0.05 0.05 89 1008.0
20260506195703 11 217 3.2 8.0 0.00 0.05 0.05 89 1007.9
20260506195606 11 217 3.2 8.0 0.00 0.05 0.05 89 1007.9
20260506195512 11 226 4.8 9.7 0.00 0.05 0.05 89 1007.9
20260506195405 11 224 4.8 9.7 0.00 0.05 0.05 89 1007.8
20260506195305 11 224 4.8 9.7 0.00 0.05 0.05 89 1007.8
20260506195207 11 242 4.8 9.7 0.00 0.05 0.05 89 1007.8
20260506195112 11 219 4.8 9.7 0.00 0.05 0.05 89 1007.8
20260506195011 11 241 4.8 9.7 0.00 0.05 0.05 89 1007.8
20260506194912 11 228 4.8 9.7 0.00 0.05 0.05 89 1007.8
20260506194804 11 217 3.2 9.7 0.00 0.05 0.05 89 1007.8
20260506194702 11 220 3.2 9.7 0.00 0.05 0.05 89 1007.8
20260506194604 11 223 3.2 9.7 0.00 0.05 0.05 89 1007.8
20260506194516 11 217 3.2 8.0 0.00 0.05 0.05 89 1007.8
20260506194403 11 236 1.6 8.0 0.00 0.05 0.05 89 1007.7
20260506194301 11 217 1.6 8.0 0.00 0.05 0.05 89 1007.7
20260506194201 11 222 1.6 8.0 0.00 0.05 0.05 89 1007.7
20260506194127 11 224 0.0 8.0 0.00 0.05 0.05 89 1007.7
20260506194026 11 217 0.0 6.4 0.00 0.05 0.05 89 1007.6
20260506193935 11 239 0.0 0.0 0.00 0.05 0.05 89 1007.6
20260506193908 11 284 0.0 3.2 0.00 0.05 0.05 89 1007.6
20260506193839 11 285 0.0 3.2 0.00 0.05 0.05 89 1007.6
20260506193810 11 285 0.0 3.2 0.00 0.05 0.05 89 1007.6
20260506193508 11 285 0.0 3.2 0.00 0.05 0.05 89 1007.5
20260506193440 11 285 0.0 3.2 0.00 0.05 0.05 89 1007.5
20260506193410 11 285 0.0 3.2 0.00 0.05 0.05 89 1007.4
20260506193326 11 285 1.6 4.8 0.00 0.05 0.05 89 1007.4
20260506193252 11 285 1.6 4.8 0.00 0.05 0.05 89 1007.4
20260506192942 11 285 1.6 6.4 0.00 0.05 0.05 89 1007.4
20260506192845 11 285 1.6 6.4 0.00 0.05 0.05 89 1007.4
20260506192737 11 285 1.6 6.4 0.00 0.05 0.05 89 1007.3
20260506192633 11 285 1.6 6.4 0.00 0.05 0.05 89 1007.4
20260506192546 11 285 1.6 6.4 0.00 0.05 0.05 90 1007.4
20260506192434 11 285 1.6 6.4 0.00 0.05 0.05 90 1007.4
20260506192335 11 285 1.6 6.4 0.00 0.05 0.05 89 1007.4
20260506192234 11 285 1.6 6.4 0.00 0.05 0.05 90 1007.4
20260506192131 11 285 1.6 6.4 0.00 0.05 0.05 90 1007.4
20260506192044 11 285 1.6 6.4 0.00 0.05 0.05 90 1007.4
20260506191932 11 307 1.6 4.8 0.00 0.05 0.05 89 1007.3
20260506191831 11 319 1.6 4.8 0.00 0.05 0.05 89 1007.3
20260506191731 11 319 1.6 4.8 0.00 0.05 0.05 89 1007.3
20260506191632 11 319 1.6 4.8 0.00 0.05 0.05 89 1007.2
20260506191543 11 319 1.6 4.8 0.00 0.05 0.05 90 1007.2
20260506191430 11 319 1.6 4.8 0.00 0.05 0.05 90 1007.1
20260506191325 11 319 1.6 4.8 0.00 0.05 0.05 90 1007.2
20260506191219 11 319 0.0 4.8 0.00 0.05 0.05 90 1007.2
20260506191120 11 319 0.0 4.8 0.00 0.05 0.05 90 1007.2
20260506191034 11 319 0.0 3.2 0.00 0.05 0.05 90 1007.2
20260506190915 11 319 0.0 3.2 0.00 0.05 0.05 89 1007.2
20260506190817 11 319 0.0 3.2 0.00 0.05 0.05 89 1007.1
20260506190709 11 319 0.0 3.2 0.00 0.05 0.05 89 1007.1
20260506190610 11 319 1.6 6.4 0.00 0.05 0.05 89 1007.0
20260506190534 11 319 1.6 6.4 0.00 0.05 0.05 89 1006.9
20260506190412 11 319 1.6 6.4 0.00 0.05 0.05 90 1007.0
20260506190311 11 319 1.6 6.4 0.00 0.05 0.05 89 1007.0
20260506190211 11 319 1.6 6.4 0.00 0.05 0.05 89 1007.1
20260506190115 11 319 1.6 6.4 0.00 0.05 0.05 89 1007.0
20260506190023 11 319 1.6 6.4 0.00 0.05 0.05 89 1007.0
20260506185905 11 319 1.6 6.4 0.00 0.05 0.05 89 1007.0
20260506185805 11 319 0.0 6.4 0.00 0.05 0.05 89 1007.0
20260506185705 11 319 0.0 6.4 0.00 0.05 0.05 88 1007.0
20260506185603 11 314 0.0 4.8 0.00 0.05 0.05 88 1007.0
20260506185516 11 287 0.0 0.0 0.00 0.05 0.05 88 1007.0
20260506185404 11 265 0.0 0.0 0.00 0.05 0.05 88 1007.0
20260506185306 12 256 0.0 0.0 0.00 0.05 0.05 88 1006.9
20260506185204 12 226 0.0 1.6 0.00 0.05 0.05 88 1007.0
20260506185100 12 226 0.0 3.2 0.00 0.05 0.05 88 1007.0
20260506184900 12 226 1.6 4.8 0.03 0.05 0.05 88 1006.9
20260506184755 12 226 1.6 6.4 0.03 0.05 0.05 88 1007.0
20260506184656 12 226 1.6 8.0 0.03 0.05 0.05 89 1006.9
20260506184554 12 226 1.6 8.0 0.03 0.05 0.05 89 1007.0
20260506184454 12 226 3.2 8.0 0.03 0.05 0.05 89 1006.8
20260506184348 12 226 3.2 8.0 0.03 0.05 0.05 88 1006.8
20260506184248 12 226 3.2 8.0 0.03 0.05 0.05 89 1006.9
20260506184150 12 226 3.2 8.0 0.03 0.05 0.05 89 1006.8
20260506184045 12 295 3.2 8.0 0.03 0.05 0.05 89 1006.7
20260506183944 12 295 1.6 8.0 0.03 0.05 0.05 89 1006.8
20260506183843 12 295 1.6 8.0 0.03 0.05 0.05 89 1006.8
20260506183743 12 293 1.6 8.0 0.03 0.05 0.05 89 1006.8
20260506183642 12 298 1.6 6.4 0.03 0.05 0.05 89 1006.7
20260506183538 12 302 1.6 6.4 0.03 0.05 0.05 89 1006.8
20260506183441 12 305 1.6 4.8 0.03 0.05 0.05 89 1006.7
20260506183340 12 305 1.6 4.8 0.03 0.05 0.05 89 1006.7
20260506183236 12 305 1.6 4.8 0.03 0.05 0.05 90 1006.7
20260506183134 12 305 1.6 4.8 0.03 0.05 0.05 90 1006.8
20260506183036 12 305 1.6 4.8 0.03 0.05 0.05 90 1006.7
20260506182932 12 305 1.6 4.8 0.03 0.05 0.05 90 1006.8
20260506182831 12 305 1.6 4.8 0.05 0.08 0.05 90 1006.7
20260506182730 12 305 1.6 4.8 0.05 0.08 0.05 90 1006.8
20260506182628 12 316 1.6 4.8 0.05 0.08 0.05 90 1006.7
20260506182526 12 316 1.6 4.8 0.05 0.08 0.05 90 1006.7
20260506182429 12 316 1.6 3.2 0.05 0.08 0.05 90 1006.7
20260506182324 12 320 1.6 6.4 0.05 0.08 0.05 90 1006.7
20260506182223 12 319 1.6 6.4 0.05 0.08 0.05 90 1006.6
20260506182116 12 319 1.6 6.4 0.05 0.08 0.05 90 1006.6
20260506182021 12 320 1.6 6.4 0.05 0.08 0.05 90 1006.6
20260506181922 11 319 1.6 6.4 0.05 0.08 0.05 90 1006.6
20260506181816 11 322 1.6 6.4 0.05 0.08 0.05 90 1006.6
20260506181719 11 327 1.6 6.4 0.05 0.10 0.05 90 1006.5
20260506181627 11 324 1.6 6.4 0.05 0.10 0.05 90 1006.5
20260506181548 11 327 1.6 6.4 0.05 0.10 0.05 89 1006.5
20260506181453 11 327 1.6 6.4 0.05 0.10 0.05 89 1006.5
20260506181352 11 325 1.6 6.4 0.05 0.13 0.05 89 1006.5
20260506181316 12 320 1.6 4.8 0.05 0.13 0.05 89 1006.5
20260506181248 12 320 1.6 4.8 0.05 0.13 0.05 90 1006.6
20260506181207 12 320 1.6 4.8 0.05 0.15 0.05 89 1006.6
20260506181119 12 320 1.6 4.8 0.05 0.15 0.05 89 1006.5
20260506180804 12 320 1.6 4.8 0.05 0.15 0.05 89 1006.6
20260506180705 12 320 0.0 4.8 0.05 0.15 0.05 89 1006.7
20260506180604 12 320 0.0 4.8 0.05 0.15 0.05 89 1006.6
20260506180513 12 320 0.0 4.8 0.05 0.15 0.05 89 1006.6
20260506180411 12 320 0.0 4.8 0.05 0.15 0.05 89 1006.6
20260506180308 12 320 0.0 3.2 0.05 0.18 0.05 89 1006.6
20260506180203 12 320 0.0 4.8 0.05 0.18 0.05 89 1006.6
20260506180109 12 320 0.0 4.8 0.05 0.20 0.05 89 1006.6
20260506180000 12 320 0.0 4.8 0.05 0.23 0.05 89 1006.7
20260506175857 12 320 0.0 4.8 0.05 0.23 0.05 89 1006.7
20260506175757 12 320 0.0 4.8 0.05 0.23 0.05 89 1006.8
20260506175658 12 320 0.0 4.8 0.05 0.25 0.05 89 1006.8
20260506175557 12 320 0.0 4.8 0.05 0.28 0.05 89 1006.8
20260506175455 12 320 1.6 4.8 0.05 0.30 0.05 89 1006.8
20260506175353 12 320 1.6 4.8 0.05 0.33 0.05 89 1006.8
20260506175249 12 320 0.0 4.8 0.05 0.33 0.05 89 1006.8
20260506175148 12 334 0.0 3.2 0.05 0.36 0.05 89 1006.8
20260506175042 12 334 0.0 3.2 0.05 0.38 0.05 89 1006.7
20260506174943 12 334 0.0 3.2 0.03 0.38 0.05 88 1006.7
20260506174844 12 334 0.0 3.2 0.03 0.43 0.05 88 1006.7
20260506174744 12 334 0.0 3.2 0.03 0.46 0.05 88 1006.7
20260506174643 12 334 1.6 3.2 0.03 0.51 0.05 88 1006.7
20260506174533 12 334 1.6 3.2 0.03 0.51 0.05 87 1006.6
20260506174433 12 333 1.6 3.2 0.03 0.56 0.05 87 1006.7
20260506174332 12 301 0.0 3.2 0.03 0.61 0.05 87 1006.7
20260506174233 12 271 0.0 3.2 0.03 0.66 0.05 87 1006.7
20260506174134 12 268 0.0 3.2 0.03 0.71 0.05 87 1006.8
20260506174030 12 268 1.6 3.2 0.03 0.74 0.05 86 1006.7
20260506173930 12 268 0.0 3.2 0.03 0.79 0.05 86 1006.8
20260506173827 12 263 0.0 3.2 0.03 0.81 0.05 85 1006.7
20260506173728 13 262 0.0 3.2 0.03 0.84 0.05 85 1006.7
20260506173630 13 262 0.0 3.2 0.03 0.86 0.05 84 1006.7
20260506173533 13 262 0.0 3.2 0.03 0.89 0.05 84 1006.8
20260506173426 13 262 0.0 3.2 0.03 0.89 0.05 83 1006.8
20260506173323 13 262 0.0 3.2 0.03 0.89 0.05 83 1006.7
20260506173221 13 261 0.0 4.8 0.03 0.89 0.05 82 1006.8
20260506173124 13 261 1.6 4.8 0.03 0.89 0.05 83 1006.8
20260506173021 13 260 1.6 4.8 0.03 0.89 0.05 82 1006.8
20260506172916 13 260 1.6 4.8 0.03 0.89 0.03 82 1006.8
20260506172815 13 260 1.6 6.4 0.00 0.89 0.03 82 1006.7
20260506172716 13 260 1.6 6.4 0.00 0.89 0.03 82 1006.8
20260506172618 13 260 3.2 6.4 0.00 0.89 0.03 81 1006.7
20260506172520 13 260 3.2 6.4 0.00 0.89 0.03 82 1006.7
20260506172413 13 259 3.2 8.0 0.00 0.89 0.03 81 1006.7
20260506172310 13 259 3.2 8.0 0.00 0.89 0.03 81 1006.7
20260506172212 13 258 3.2 8.0 0.00 0.89 0.03 81 1006.7
20260506172111 13 258 3.2 8.0 0.00 0.89 0.03 81 1006.7
20260506172016 13 258 4.8 8.0 0.00 0.89 0.03 81 1006.6
20260506171914 13 259 4.8 8.0 0.00 0.89 0.03 80 1006.6
20260506171807 13 278 4.8 9.7 0.00 0.89 0.03 81 1006.7
20260506171704 13 278 4.8 11.3 0.00 0.89 0.03 81 1006.5
20260506171607 13 287 4.8 11.3 0.00 0.89 0.03 80 1006.6
20260506171512 13 287 4.8 11.3 0.00 0.89 0.03 80 1006.5
20260506171413 13 277 4.8 11.3 0.00 0.89 0.03 80 1006.5
20260506171303 13 260 4.8 11.3 0.00 0.89 0.03 80 1006.5
20260506171200 13 260 4.8 11.3 0.00 0.89 0.03 80 1006.5
20260506171111 13 290 4.8 11.3 0.00 0.89 0.03 80 1006.5
20260506170952 13 293 4.8 11.3 0.00 0.89 0.03 79 1006.4
20260506170754 13 298 3.2 9.7 0.00 0.89 0.03 79 1006.3
20260506170651 13 326 3.2 9.7 0.00 0.89 0.03 79 1006.3
20260506170554 14 311 3.2 9.7 0.00 0.89 0.03 79 1006.3
20260506170452 14 294 3.2 9.7 0.00 0.89 0.03 78 1006.3
20260506170249 14 293 3.2 12.9 0.00 0.89 0.03 78 1006.4
20260506170150 14 294 3.2 12.9 0.00 0.89 0.03 77 1006.4
20260506170056 14 324 3.2 12.9 0.00 0.89 0.03 77 1006.3
20260506165950 14 319 3.2 12.9 0.00 0.89 0.03 77 1006.3
20260506165746 14 317 4.8 12.9 0.00 0.89 0.03 77 1006.4
20260506165646 14 318 4.8 12.9 0.00 0.89 0.03 76 1006.3
20260506165545 14 318 4.8 12.9 0.00 0.89 0.03 75 1006.4
20260506165443 14 317 4.8 12.9 0.00 0.89 0.03 75 1006.4
20260506165347 14 324 3.2 12.9 0.00 0.89 0.03 75 1006.3
20260506165243 15 310 3.2 8.0 0.00 0.89 0.03 75 1006.3
20260506165144 15 324 3.2 9.7 0.00 0.89 0.03 75 1006.3
20260506165043 15 333 3.2 9.7 0.00 0.89 0.03 74 1006.3
20260506164941 15 307 4.8 9.7 0.00 0.89 0.03 74 1006.2
20260506164846 15 321 4.8 9.7 0.00 0.89 0.03 74 1006.3
20260506164738 15 327 4.8 9.7 0.00 0.89 0.03 74 1006.2
20260506164640 15 327 4.8 9.7 0.00 0.89 0.03 73 1006.3
20260506164539 15 327 4.8 9.7 0.00 0.89 0.03 73 1006.3
20260506164439 15 318 4.8 9.7 0.00 0.89 0.03 72 1006.2
20260506164341 15 317 3.2 9.7 0.00 0.89 0.03 72 1006.3
20260506164233 15 318 3.2 9.7 0.00 0.89 0.03 72 1006.3
20260506164133 15 294 3.2 9.7 0.00 0.89 0.03 72 1006.2
20260506164032 15 295 3.2 8.0 0.00 0.89 0.03 72 1006.3
20260506163933 15 295 3.2 8.0 0.00 0.89 0.03 72 1006.3
20260506163837 15 314 3.2 6.4 0.00 0.89 0.03 71 1006.3
20260506163730 15 305 3.2 6.4 0.00 0.89 0.03 71 1006.3
20260506163630 15 295 3.2 8.0 0.00 0.89 0.03 72 1006.2
20260506163530 15 324 3.2 8.0 0.00 0.89 0.03 72 1006.3
20260506163433 15 322 3.2 8.0 0.00 0.89 0.03 71 1006.2
20260506163341 15 322 3.2 8.0 0.00 0.89 0.03 71 1006.3
20260506163235 15 320 3.2 8.0 0.00 0.89 0.03 71 1006.2
20260506163130 15 318 3.2 8.0 0.00 0.89 0.03 71 1006.3
20260506163030 15 324 3.2 8.0 0.00 0.89 0.03 71 1006.3
20260506162940 15 309 3.2 8.0 0.00 0.89 0.03 71 1006.3
20260506162852 15 295 3.2 8.0 0.00 0.89 0.03 70 1006.3
20260506162819 15 295 3.2 8.0 0.00 0.89 0.03 70 1006.3
20260506162747 15 300 3.2 8.0 0.00 0.89 0.03 70 1006.3
20260506162712 15 322 3.2 8.0 0.00 0.89 0.03 70 1006.3
20260506162616 15 323 3.2 8.0 0.00 0.89 0.03 70 1006.3
20260506162328 15 322 3.2 8.0 0.00 0.89 0.03 69 1006.3
20260506162218 15 321 3.2 8.0 0.00 0.89 0.03 69 1006.3
20260506162115 15 321 3.2 8.0 0.00 0.89 0.03 69 1006.3
20260506162021 15 322 3.2 8.0 0.00 0.89 0.03 69 1006.3
20260506161913 15 312 3.2 8.0 0.00 0.89 0.03 69 1006.3
20260506161816 15 305 3.2 8.0 0.00 0.89 0.03 69 1006.3
20260506161715 15 319 3.2 8.0 0.00 0.89 0.03 69 1006.3
20260506161619 15 318 3.2 8.0 0.00 0.89 0.03 68 1006.3
20260506161520 15 304 3.2 8.0 0.00 0.89 0.03 69 1006.3
20260506161410 16 298 3.2 8.0 0.00 0.89 0.03 68 1006.3
20260506161309 16 285 1.6 8.0 0.00 0.89 0.03 68 1006.4
20260506161218 16 312 1.6 6.4 0.00 0.89 0.03 68 1006.3
20260506161126 16 300 1.6 6.4 0.00 0.89 0.03 68 1006.3
20260506161018 16 326 1.6 6.4 0.00 0.89 0.03 68 1006.3
20260506160908 16 326 1.6 6.4 0.00 0.89 0.03 68 1006.3
20260506160808 16 326 1.6 6.4 0.00 0.89 0.03 70 1006.3
20260506160718 16 325 1.6 6.4 0.00 0.89 0.03 68 1006.3
20260506160640 16 325 1.6 6.4 0.00 0.89 0.03 68 1006.4
20260506160546 16 325 0.0 6.4 0.00 0.89 0.03 69 1006.4
20260506160447 16 329 0.0 6.4 0.00 0.89 0.03 68 1006.4
20260506160401 16 328 0.0 3.2 0.00 0.89 0.03 68 1006.3
20260506160337 16 352 0.0 3.2 0.00 0.89 0.03 69 1006.3
20260506160304 16 352 0.0 3.2 0.00 0.89 0.03 69 1006.3
20260506160215 16 352 0.0 3.2 0.00 0.89 0.03 69 1006.3
20260506160110 16 352 0.0 3.2 0.00 0.89 0.03 68 1006.3
20260506155804 16 352 0.0 3.2 0.00 0.89 0.03 68 1006.3
20260506155709 16 352 0.0 3.2 0.00 0.89 0.03 69 1006.3
20260506155604 16 351 0.0 3.2 0.00 0.89 0.03 68 1006.3
20260506155507 16 350 0.0 3.2 0.00 0.89 0.03 69 1006.3
20260506155404 16 350 0.0 3.2 0.00 0.89 0.03 68 1006.4
20260506155306 16 350 0.0 4.8 0.00 0.89 0.03 69 1006.4
20260506155202 16 350 0.0 4.8 0.00 0.89 0.03 68 1006.5
20260506155107 16 350 0.0 4.8 0.00 0.89 0.03 69 1006.5
20260506154955 16 350 0.0 4.8 0.00 0.89 0.03 69 1006.4
20260506154755 16 350 0.0 4.8 0.00 0.89 0.03 69 1006.4
20260506154657 16 350 0.0 4.8 0.00 0.89 0.03 70 1006.4
20260506154557 16 350 0.0 4.8 0.00 0.89 0.03 69 1006.4
20260506154454 16 350 1.6 6.4 0.00 0.89 0.03 68 1006.4
20260506154357 16 350 1.6 6.4 0.00 0.89 0.03 68 1006.5
20260506154256 16 350 1.6 6.4 0.00 0.89 0.03 69 1006.4
20260506154157 16 350 1.6 6.4 0.00 0.89 0.03 68 1006.4
20260506154054 16 350 1.6 6.4 0.00 0.89 0.03 68 1006.4
20260506153954 16 350 1.6 6.4 0.00 0.89 0.03 68 1006.5
20260506153747 16 350 1.6 6.4 0.00 0.89 0.03 68 1006.5
20260506153642 16 350 1.6 6.4 0.00 0.89 0.03 68 1006.5
20260506153544 16 317 1.6 6.4 0.00 0.89 0.03 67 1006.4
20260506153436 16 328 1.6 6.4 0.00 0.89 0.03 68 1006.5
20260506153239 16 345 1.6 6.4 0.00 0.89 0.03 68 1006.5
20260506153141 16 345 3.2 6.4 0.00 0.89 0.03 67 1006.5
20260506153038 16 345 3.2 6.4 0.00 0.89 0.03 67 1006.4
20260506152937 16 37 3.2 8.0 0.00 0.89 0.03 68 1006.4
20260506152732 16 331 3.2 8.0 0.00 0.89 0.03 67 1006.4
20260506152633 16 331 3.2 8.0 0.00 0.89 0.03 67 1006.4
20260506152533 16 327 3.2 8.0 0.00 0.89 0.03 67 1006.5
20260506152431 16 327 1.6 8.0 0.00 0.89 0.03 67 1006.4
20260506152326 16 327 1.6 8.0 0.00 0.89 0.03 66 1006.5
20260506152227 16 327 1.6 8.0 0.00 0.89 0.03 66 1006.4
20260506152126 16 326 1.6 8.0 0.00 0.89 0.03 66 1006.4
20260506152023 16 326 1.6 8.0 0.00 0.89 0.03 67 1006.5
20260506151924 16 324 1.6 6.4 0.00 0.89 0.03 66 1006.5
20260506151819 16 324 1.6 6.4 0.00 0.89 0.03 67 1006.5
20260506151719 16 324 1.6 6.4 0.00 0.89 0.03 67 1006.4
20260506151619 16 324 1.6 6.4 0.00 0.89 0.03 67 1006.5
20260506151520 16 317 1.6 6.4 0.00 0.89 0.03 66 1006.4
20260506151419 16 315 1.6 6.4 0.00 0.89 0.03 66 1006.5
20260506151321 16 315 1.6 6.4 0.00 0.89 0.03 66 1006.4
20260506151217 16 315 1.6 6.4 0.00 0.89 0.03 67 1006.4
20260506151113 16 315 1.6 6.4 0.00 0.89 0.03 66 1006.4
20260506151020 16 287 1.6 6.4 0.00 0.89 0.03 65 1006.4
20260506150909 16 287 1.6 6.4 0.00 0.89 0.03 64 1006.4
20260506150809 16 298 1.6 6.4 0.00 0.89 0.03 65 1006.5
20260506150704 16 298 0.0 4.8 0.00 0.89 0.03 65 1006.4
20260506150606 16 216 0.0 3.2 0.00 0.89 0.03 64 1006.4
20260506150512 16 216 1.6 3.2 0.00 0.89 0.03 64 1006.4
20260506150404 16 216 1.6 3.2 0.00 0.89 0.03 63 1006.4
20260506150304 16 216 1.6 3.2 0.00 0.89 0.03 63 1006.5
20260506150206 16 216 1.6 4.8 0.00 0.89 0.03 63 1006.5
20260506150002 16 215 1.6 4.8 0.00 0.89 0.03 63 1006.4
20260506145900 16 215 1.6 4.8 0.00 0.89 0.03 62 1006.4
20260506145800 16 214 1.6 4.8 0.00 0.89 0.03 64 1006.5
20260506145702 16 215 1.6 8.0 0.00 0.89 0.03 63 1006.5
20260506145601 16 215 1.6 8.0 0.00 0.89 0.03 63 1006.5
20260506145500 16 215 1.6 8.0 0.00 0.89 0.03 63 1006.6
20260506145401 16 226 1.6 8.0 0.00 0.89 0.03 64 1006.6
20260506145259 16 248 1.6 8.0 0.00 0.89 0.03 64 1006.5
20260506145158 16 267 1.6 8.0 0.00 0.89 0.03 65 1006.6
20260506145058 16 269 1.6 8.0 0.00 0.89 0.03 64 1006.5
20260506144958 16 269 1.6 8.0 0.00 0.89 0.03 65 1006.6
20260506144857 16 269 1.6 8.0 0.00 0.89 0.03 66 1006.5
20260506144759 16 269 1.6 8.0 0.00 0.89 0.03 64 1006.5
20260506144652 16 330 1.6 8.0 0.00 0.89 0.03 66 1006.6
20260506144554 16 320 1.6 8.0 0.00 0.89 0.03 65 1006.5
20260506144455 16 319 1.6 8.0 0.00 0.89 0.03 66 1006.6
20260506144353 16 307 3.2 8.0 0.00 0.89 0.03 65 1006.6
20260506144255 16 307 3.2 8.0 0.00 0.89 0.03 65 1006.5
20260506144146 16 320 3.2 8.0 0.00 0.89 0.03 63 1006.6
20260506144048 16 320 3.2 8.0 0.00 0.89 0.03 63 1006.5
20260506143944 16 319 3.2 8.0 0.00 0.89 0.03 64 1006.6
20260506143847 16 286 3.2 8.0 0.00 0.89 0.03 66 1006.6
20260506143745 16 222 3.2 8.0 0.00 0.89 0.03 65 1006.6
20260506143642 16 222 3.2 8.0 0.00 0.89 0.03 63 1006.6
20260506143539 16 222 3.2 8.0 0.00 0.89 0.03 63 1006.6
20260506143443 16 270 3.2 8.0 0.00 0.89 0.03 62 1006.5
20260506143340 16 254 1.6 8.0 0.00 0.89 0.03 62 1006.6
20260506143241 16 231 1.6 6.4 0.00 0.89 0.03 62 1006.6
20260506143136 16 262 1.6 6.4 0.00 0.89 0.03 63 1006.6
20260506143034 17 274 1.6 6.4 0.00 0.89 0.03 64 1006.6
20260506142937 17 221 1.6 6.4 0.00 0.89 0.03 62 1006.6
20260506142836 16 221 1.6 6.4 0.00 0.89 0.03 62 1006.6
20260506142736 16 253 1.6 4.8 0.00 0.89 0.03 63 1006.6
20260506142632 16 220 1.6 4.8 0.00 0.89 0.03 63 1006.6
20260506142531 16 217 0.0 3.2 0.00 0.89 0.03 62 1006.5
20260506142431 16 217 0.0 3.2 0.00 0.89 0.03 63 1006.5
20260506142331 16 217 1.6 4.8 0.00 0.89 0.03 62 1006.6
20260506142233 16 217 1.6 6.4 0.00 0.89 0.03 62 1006.5
20260506142131 16 217 1.6 8.0 0.00 0.89 0.03 63 1006.5
20260506142030 16 249 1.6 8.0 0.00 0.89 0.03 62 1006.5
20260506141927 16 248 1.6 8.0 0.00 0.89 0.03 64 1006.5
20260506141829 16 248 3.2 8.0 0.00 0.89 0.03 65 1006.5
20260506141726 16 243 3.2 8.0 0.00 0.89 0.03 63 1006.5
20260506141629 17 243 3.2 8.0 0.00 0.89 0.03 62 1006.5
20260506141528 17 250 4.8 8.0 0.00 0.89 0.03 62 1006.5
20260506141426 17 250 4.8 9.7 0.00 0.89 0.03 61 1006.5
20260506141328 17 244 4.8 9.7 0.00 0.89 0.03 62 1006.6
20260506141235 17 243 4.8 9.7 0.00 0.89 0.03 62 1006.6
20260506141140 16 216 3.2 9.7 0.00 0.89 0.03 62 1006.6
20260506141108 16 217 3.2 9.7 0.00 0.89 0.03 62 1006.5
20260506141020 16 241 3.2 9.7 0.00 0.89 0.03 61 1006.6
20260506140941 16 214 3.2 9.7 0.00 0.89 0.03 61 1006.6
20260506140856 16 186 3.2 9.7 0.00 0.89 0.03 62 1006.6
20260506140818 16 196 3.2 9.7 0.00 0.89 0.03 62 1006.6
20260506140529 16 216 3.2 9.7 0.00 0.89 0.03 62 1006.6
20260506140444 16 216 3.2 9.7 0.00 0.89 0.03 62 1006.6
20260506140335 16 145 3.2 9.7 0.00 0.89 0.03 62 1006.7
20260506140300 16 217 3.2 9.7 0.00 0.89 0.03 63 1006.7
20260506140218 16 217 3.2 9.7 0.00 0.89 0.03 62 1006.7
20260506140131 16 217 3.2 9.7 0.00 0.89 0.03 62 1006.7
20260506140058 16 217 3.2 9.7 0.00 0.89 0.03 62 1006.7
20260506135756 16 214 3.2 9.7 0.00 0.89 0.03 63 1006.7
20260506135715 16 191 3.2 9.7 0.00 0.89 0.03 63 1006.8
20260506135643 16 149 3.2 9.7 0.00 0.89 0.03 62 1006.8
20260506135557 16 133 3.2 9.7 0.00 0.89 0.03 61 1006.7
20260506135528 16 149 3.2 9.7 0.00 0.89 0.03 62 1006.8
20260506135214 16 168 3.2 9.7 0.00 0.89 0.03 62 1006.8
20260506135108 16 189 3.2 8.0 0.00 0.89 0.03 61 1006.8
20260506135018 16 174 3.2 8.0 0.00 0.89 0.03 62 1006.7
20260506134907 16 194 3.2 8.0 0.00 0.89 0.03 62 1006.7
20260506134710 16 167 1.6 8.0 0.00 0.89 0.03 61 1006.8
20260506134607 16 181 1.6 8.0 0.00 0.89 0.03 63 1006.8
20260506134517 16 196 1.6 8.0 0.00 0.89 0.03 62 1006.7
20260506134406 16 215 1.6 8.0 0.00 0.89 0.03 62 1006.8
20260506134215 16 207 1.6 8.0 0.00 0.89 0.03 64 1006.8
20260506134105 16 217 1.6 8.0 0.00 0.89 0.03 64 1006.8
20260506134014 16 217 1.6 11.3 0.00 0.89 0.03 63 1006.8
20260506133912 16 217 3.2 11.3 0.00 0.89 0.03 63 1006.8
20260506133710 16 217 3.2 11.3 0.00 0.89 0.03 64 1006.9
20260506133605 16 217 3.2 11.3 0.00 0.89 0.03 62 1006.8
20260506133510 16 235 3.2 11.3 0.00 0.89 0.03 62 1006.8
20260506133403 16 261 4.8 11.3 0.00 0.89 0.03 62 1006.9
20260506133302 16 210 4.8 11.3 0.00 0.89 0.03 62 1006.9
20260506133207 16 217 4.8 11.3 0.00 0.89 0.03 62 1006.9
20260506133103 16 175 4.8 11.3 0.00 0.89 0.03 62 1006.9
20260506133013 16 203 4.8 12.9 0.00 0.89 0.03 62 1006.9
20260506132934 16 217 6.4 12.9 0.00 0.89 0.03 62 1006.9
20260506132849 16 178 6.4 12.9 0.00 0.89 0.03 62 1006.9
20260506132817 16 187 6.4 12.9 0.00 0.89 0.03 62 1007.0
20260506132739 16 217 6.4 12.9 0.00 0.89 0.03 62 1007.0
20260506132642 16 208 6.4 12.9 0.00 0.89 0.03 62 1007.0
20260506132558 16 195 6.4 12.9 0.00 0.89 0.03 63 1007.1
20260506132307 16 217 6.4 12.9 0.00 0.89 0.03 62 1007.1
20260506132209 16 215 4.8 12.9 0.00 0.89 0.03 62 1007.0
20260506132108 16 151 4.8 12.9 0.00 0.89 0.03 62 1007.0
20260506132008 16 156 4.8 12.9 0.00 0.89 0.03 62 1007.1
20260506131913 16 152 4.8 9.7 0.00 0.89 0.03 63 1007.1
20260506131827 16 136 4.8 11.3 0.00 0.89 0.03 63 1007.1
20260506131750 16 134 4.8 11.3 0.00 0.89 0.03 63 1007.1
20260506131711 16 174 4.8 11.3 0.00 0.89 0.03 63 1007.1
20260506131631 16 190 4.8 11.3 0.00 0.89 0.03 64 1007.1
20260506131550 16 223 4.8 11.3 0.00 0.89 0.03 63 1007.1
20260506131300 16 251 4.8 11.3 0.00 0.89 0.03 62 1007.1
20260506131200 16 215 4.8 11.3 0.00 0.89 0.03 63 1007.1
20260506131103 16 217 4.8 11.3 0.00 0.89 0.03 63 1007.1
20260506131000 16 247 4.8 11.3 0.00 0.89 0.03 63 1007.2
20260506130855 16 265 3.2 11.3 0.00 0.89 0.03 62 1007.1
20260506130755 16 269 4.8 9.7 0.00 0.89 0.03 61 1007.2
20260506130655 16 217 4.8 11.3 0.00 0.89 0.03 62 1007.1
20260506130604 16 189 6.4 11.3 0.00 0.89 0.03 62 1007.2
20260506130518 16 156 6.4 14.5 0.00 0.89 0.03 62 1007.1
20260506130433 16 215 6.4 14.5 0.00 0.89 0.03 62 1007.2
20260506130353 16 217 6.4 14.5 0.00 0.89 0.03 61 1007.2
20260506130317 16 215 8.0 14.5 0.00 0.89 0.03 60 1007.2
20260506130232 16 215 8.0 14.5 0.00 0.89 0.03 61 1007.2
20260506130135 16 200 8.0 14.5 0.00 0.89 0.03 61 1007.2
20260506130046 16 163 8.0 14.5 0.00 0.89 0.03 61 1007.3
20260506125752 16 229 8.0 14.5 0.00 0.89 0.03 61 1007.2
20260506125652 16 246 6.4 14.5 0.00 0.89 0.03 61 1007.2
20260506125554 16 216 6.4 14.5 0.00 0.89 0.03 61 1007.3
20260506125455 16 233 6.4 14.5 0.00 0.89 0.03 61 1007.3
20260506125354 16 194 6.4 14.5 0.00 0.89 0.03 61 1007.3
20260506125254 16 192 4.8 14.5 0.00 0.89 0.03 61 1007.3
20260506125200 16 179 4.8 14.5 0.00 0.89 0.03 61 1007.3
20260506125055 16 248 4.8 12.9 0.00 0.89 0.03 61 1007.2
20260506124949 16 242 4.8 12.9 0.00 0.89 0.03 61 1007.3
20260506124848 16 222 4.8 12.9 0.00 0.89 0.03 62 1007.2
20260506124752 16 217 4.8 9.7 0.00 0.89 0.03 62 1007.3
20260506124648 16 245 3.2 9.7 0.00 0.89 0.03 61 1007.2
20260506124548 16 212 3.2 9.7 0.00 0.89 0.03 61 1007.2
20260506124451 16 213 4.8 9.7 0.00 0.89 0.03 62 1007.2
20260506124407 16 210 3.2 9.7 0.00 0.89 0.03 62 1007.2
20260506124322 16 153 4.8 9.7 0.00 0.89 0.03 62 1007.2
20260506124248 16 171 4.8 9.7 0.00 0.89 0.03 63 1007.1
20260506124207 16 204 4.8 9.7 0.00 0.89 0.03 63 1007.1
20260506124127 16 216 3.2 9.7 0.00 0.89 0.03 63 1007.1
20260506124053 16 257 3.2 9.7 0.00 0.89 0.03 63 1007.1
20260506123807 16 218 3.2 9.7 0.00 0.89 0.03 63 1007.1
20260506123735 16 216 4.8 9.7 0.00 0.89 0.03 63 1007.1
20260506123657 16 228 4.8 14.5 0.00 0.89 0.03 63 1007.1
20260506123618 16 213 4.8 14.5 0.00 0.89 0.03 63 1007.1
20260506123543 16 136 4.8 14.5 0.00 0.89 0.03 61 1007.1
20260506123250 16 165 4.8 14.5 0.00 0.89 0.03 62 1007.1
20260506123152 16 136 4.8 14.5 0.00 0.89 0.03 63 1007.2
20260506123045 16 163 4.8 14.5 0.00 0.89 0.03 63 1007.1
20260506122946 16 158 4.8 14.5 0.00 0.89 0.03 62 1007.1
20260506122846 16 215 4.8 14.5 0.00 0.89 0.03 63 1007.1
20260506122745 16 146 6.4 14.5 0.00 0.89 0.03 62 1007.1
20260506122645 16 134 6.4 14.5 0.00 0.89 0.03 62 1007.2
20260506122546 16 157 6.4 12.9 0.00 0.89 0.03 62 1007.2
20260506122446 16 158 6.4 12.9 0.00 0.89 0.03 61 1007.2
20260506122345 16 180 6.4 12.9 0.00 0.89 0.03 63 1007.3
20260506122248 16 217 6.4 12.9 0.00 0.89 0.03 63 1007.3
20260506122144 16 243 6.4 12.9 0.00 0.89 0.03 62 1007.2
20260506122043 16 217 4.8 12.9 0.00 0.89 0.03 63 1007.3
20260506121944 16 208 4.8 12.9 0.00 0.89 0.03 63 1007.3
20260506121901 16 274 6.4 12.9 0.00 0.89 0.03 62 1007.3
20260506121816 16 218 6.4 12.9 0.00 0.89 0.03 62 1007.3
20260506121735 16 215 6.4 12.9 0.00 0.89 0.03 63 1007.3
20260506121656 16 236 4.8 12.9 0.00 0.89 0.03 65 1007.3
20260506121609 16 236 4.8 12.9 0.00 0.89 0.03 66 1007.3
20260506121536 16 215 4.8 12.9 0.00 0.89 0.03 66 1007.3
20260506121233 16 215 4.8 12.9 0.00 0.89 0.03 66 1007.3
20260506121143 16 215 4.8 12.9 0.00 0.89 0.03 67 1007.3
20260506121035 16 132 4.8 12.9 0.00 0.89 0.03 67 1007.4
20260506120932 16 275 4.8 12.9 0.00 0.89 0.03 66 1007.4
20260506120834 16 216 3.2 12.9 0.00 0.89 0.03 66 1007.3
20260506120735 16 216 3.2 12.9 0.00 0.89 0.03 65 1007.4
20260506120636 16 217 3.2 12.9 0.00 0.89 0.03 66 1007.3
20260506120532 16 262 3.2 11.3 0.00 0.89 0.03 68 1007.4
20260506120434 16 280 3.2 11.3 0.00 0.89 0.03 68 1007.4
20260506120334 15 196 3.2 9.7 0.00 0.89 0.03 70 1007.4
20260506120232 15 215 3.2 9.7 0.00 0.89 0.03 70 1007.4
20260506120132 15 215 4.8 9.7 0.00 0.89 0.03 71 1007.4
20260506120033 15 215 4.8 9.7 0.00 0.89 0.03 70 1007.4
20260506115932 15 215 4.8 9.7 0.00 0.89 0.03 69 1007.4
20260506115832 15 215 6.4 12.9 0.00 0.89 0.03 69 1007.4
20260506115731 15 215 6.4 14.5 0.00 0.89 0.03 70 1007.4
20260506115640 15 189 6.4 14.5 0.00 0.89 0.03 69 1007.5
20260506115602 15 201 6.4 14.5 0.00 0.89 0.03 69 1007.6
20260506115516 16 177 6.4 14.5 0.00 0.89 0.03 68 1007.5
20260506115446 16 217 6.4 14.5 0.00 0.89 0.03 68 1007.6
20260506115400 16 239 6.4 14.5 0.00 0.89 0.03 68 1007.5
20260506115321 16 236 6.4 14.5 0.00 0.89 0.03 68 1007.5
20260506115234 16 150 6.4 14.5 0.00 0.89 0.03 69 1007.5
20260506114932 16 165 4.8 14.5 0.00 0.89 0.03 69 1007.6
20260506114855 16 216 4.8 12.9 0.00 0.89 0.03 67 1007.6
20260506114815 16 254 4.8 12.9 0.00 0.89 0.03 68 1007.6
20260506114739 16 217 4.8 12.9 0.00 0.89 0.03 69 1007.6
20260506114655 16 217 6.4 14.5 0.00 0.89 0.03 69 1007.6
20260506114607 16 217 8.0 16.1 0.00 0.89 0.03 69 1007.5
20260506114527 16 217 8.0 16.1 0.00 0.89 0.03 70 1007.5
20260506114224 16 231 8.0 16.1 0.00 0.89 0.03 71 1007.6
20260506114121 15 201 8.0 16.1 0.00 0.89 0.03 72 1007.6
20260506114021 15 203 8.0 16.1 0.00 0.89 0.03 72 1007.6
20260506113924 15 211 8.0 16.1 0.00 0.89 0.03 71 1007.5
20260506113704 15 163 6.4 16.1 0.00 0.89 0.03 71 1007.6
20260506113606 15 198 6.4 16.1 0.00 0.89 0.03 71 1007.6
20260506113515 15 175 6.4 16.1 0.00 0.89 0.03 70 1007.6
20260506113405 15 170 6.4 14.5 0.00 0.89 0.03 71 1007.6
20260506113203 15 162 4.8 11.3 0.00 0.89 0.03 71 1007.6
20260506113103 15 125 4.8 11.3 0.00 0.89 0.03 71 1007.7
20260506113006 15 160 4.8 11.3 0.00 0.89 0.03 71 1007.7
20260506112904 15 182 4.8 11.3 0.00 0.89 0.03 71 1007.8
20260506112705 15 215 6.4 11.3 0.00 0.89 0.03 72 1007.7
20260506112603 15 199 6.4 11.3 0.00 0.89 0.03 71 1007.7
20260506112513 15 214 6.4 11.3 0.00 0.89 0.03 71 1007.8
20260506112402 15 239 6.4 11.3 0.00 0.89 0.03 71 1007.7
20260506112314 15 239 6.4 11.3 0.00 0.89 0.03 72 1007.7
20260506112205 15 217 6.4 11.3 0.00 0.89 0.03 72 1007.8
20260506112108 15 260 6.4 12.9 0.00 0.89 0.03 72 1007.7
20260506112002 15 217 6.4 12.9 0.00 0.89 0.03 72 1007.6
20260506111901 15 217 6.4 12.9 0.00 0.89 0.03 72 1007.7
20260506111702 15 265 6.4 12.9 0.00 0.89 0.03 71 1007.7
20260506111609 15 253 4.8 12.9 0.00 0.89 0.03 71 1007.6
20260506111455 15 242 4.8 12.9 0.00 0.89 0.03 71 1007.7
20260506111356 15 241 6.4 12.9 0.00 0.89 0.03 71 1007.7
20260506111155 15 217 4.8 12.9 0.00 0.89 0.03 71 1007.7
20260506111054 15 252 4.8 12.9 0.00 0.89 0.03 71 1007.6
20260506110951 15 217 4.8 12.9 0.00 0.89 0.03 71 1007.7
20260506110850 15 194 4.8 11.3 0.00 0.89 0.03 72 1007.7
20260506110750 15 204 4.8 11.3 0.00 0.89 0.03 71 1007.7
20260506110646 15 232 4.8 11.3 0.00 0.89 0.03 72 1007.7
20260506110552 15 216 4.8 11.3 0.00 0.89 0.03 70 1007.7
20260506110447 15 158 4.8 11.3 0.00 0.89 0.03 69 1007.7
20260506110337 15 184 4.8 17.7 0.00 0.89 0.03 70 1007.7
20260506110244 15 159 4.8 17.7 0.00 0.89 0.03 72 1007.7
20260506110139 15 220 4.8 17.7 0.00 0.89 0.03 72 1007.6
20260506110035 15 236 6.4 17.7 0.00 0.89 0.03 72 1007.7
20260506105931 15 153 6.4 17.7 0.00 0.89 0.03 73 1007.7
20260506105833 15 190 6.4 17.7 0.00 0.89 0.03 73 1007.8
20260506105733 15 192 6.4 17.7 0.00 0.89 0.03 71 1007.7
20260506105631 15 176 6.4 17.7 0.00 0.89 0.03 72 1007.7
20260506105530 15 168 6.4 17.7 0.00 0.89 0.03 72 1007.7
20260506105432 15 216 6.4 17.7 0.00 0.89 0.03 73 1007.7
20260506105331 15 152 6.4 14.5 0.00 0.89 0.03 73 1007.7
20260506105232 15 162 6.4 14.5 0.00 0.89 0.03 72 1007.7
20260506105130 15 184 6.4 14.5 0.00 0.89 0.03 72 1007.8
20260506105026 15 156 6.4 12.9 0.00 0.89 0.03 72 1007.7
20260506104926 15 217 6.4 12.9 0.00 0.89 0.03 72 1007.8
20260506104824 15 211 6.4 12.9 0.00 0.89 0.03 72 1007.7
20260506104725 15 215 4.8 11.3 0.00 0.89 0.03 72 1007.7
20260506104627 15 216 6.4 11.3 0.00 0.89 0.03 72 1007.8
20260506104524 15 172 4.8 11.3 0.00 0.89 0.03 72 1007.8
20260506104422 15 205 6.4 11.3 0.00 0.89 0.03 72 1007.8
20260506104319 15 186 6.4 11.3 0.00 0.89 0.03 72 1007.9
20260506104216 15 241 6.4 14.5 0.00 0.89 0.03 72 1007.9
20260506104116 15 229 6.4 14.5 0.00 0.89 0.03 74 1007.9
20260506104016 15 146 6.4 14.5 0.00 0.89 0.03 74 1007.8
20260506103913 15 203 6.4 14.5 0.00 0.89 0.03 73 1007.9
20260506103813 15 169 6.4 14.5 0.00 0.89 0.03 74 1007.8
20260506103711 15 130 6.4 14.5 0.00 0.89 0.03 74 1007.9
20260506103609 15 191 6.4 14.5 0.00 0.89 0.03 74 1007.8
20260506103601 14 160 4.8 11.3 0.00 0.89 0.03 74 1007.9
20260506103515 15 194 4.8 14.5 0.00 0.89 0.03 74 1007.8
20260506103427 15 217 4.8 14.5 0.00 0.89 0.03 74 1007.9
20260506103347 15 187 4.8 14.5 0.00 0.89 0.03 74 1007.9
20260506103218 14 212 4.8 11.3 0.00 0.89 0.03 74 1007.9
20260506103138 14 151 4.8 11.3 0.00 0.89 0.03 74 1007.9
20260506103054 14 215 6.4 12.9 0.00 0.89 0.03 74 1007.8
20260506103012 14 214 4.8 12.9 0.00 0.89 0.03 74 1007.9
20260506102659 15 149 4.8 12.9 0.00 0.89 0.03 74 1007.8
20260506102555 15 182 6.4 12.9 0.00 0.89 0.03 74 1007.8
20260506102455 15 195 6.4 12.9 0.00 0.89 0.03 75 1007.8
20260506102357 14 231 6.4 12.9 0.00 0.89 0.03 74 1007.9
20260506102152 14 156 6.4 12.9 0.00 0.89 0.03 75 1007.9
20260506102049 14 185 6.4 12.9 0.00 0.89 0.03 76 1007.9
20260506101951 14 209 6.4 12.9 0.00 0.89 0.03 76 1007.8
20260506101847 14 192 6.4 12.9 0.00 0.89 0.03 77 1007.9
20260506101650 14 151 4.8 12.9 0.00 0.89 0.03 76 1007.9
20260506101546 14 151 4.8 12.9 0.00 0.89 0.03 77 1007.8
20260506101444 14 153 4.8 9.7 0.00 0.89 0.03 77 1007.9
20260506101341 14 191 4.8 9.7 0.00 0.89 0.03 77 1007.9
20260506101242 14 182 3.2 9.7 0.00 0.89 0.03 77 1007.9
20260506101138 14 178 3.2 11.3 0.00 0.89 0.03 76 1007.8
20260506101041 14 166 3.2 11.3 0.00 0.89 0.03 76 1007.9
20260506100934 14 132 3.2 11.3 0.00 0.89 0.03 77 1007.8
20260506100835 14 217 3.2 11.3 0.00 0.89 0.03 75 1007.8
20260506100735 14 217 3.2 11.3 0.00 0.89 0.03 76 1007.8
20260506100626 14 165 3.2 11.3 0.00 0.89 0.03 76 1007.9
20260506100530 14 217 3.2 11.3 0.00 0.89 0.03 77 1007.8
20260506100425 14 217 4.8 11.3 0.00 0.89 0.03 77 1007.8
20260506100328 14 217 4.8 11.3 0.00 0.89 0.03 77 1007.9
20260506100234 14 188 4.8 11.3 0.00 0.89 0.03 76 1007.8
20260506100126 14 166 4.8 11.3 0.00 0.89 0.03 76 1007.8
20260506100024 14 215 4.8 12.9 0.00 0.89 0.03 76 1007.8
20260506095921 14 184 6.4 12.9 0.00 0.89 0.03 76 1007.9
20260506095818 14 213 6.4 12.9 0.00 0.89 0.03 75 1007.8
20260506095718 14 210 4.8 12.9 0.00 0.89 0.03 75 1007.9
20260506095614 13 216 4.8 12.9 0.00 0.89 0.03 75 1007.8
20260506095515 13 214 4.8 12.9 0.00 0.89 0.03 75 1007.8
20260506095411 13 194 4.8 12.9 0.00 0.89 0.03 75 1007.9
20260506095330 13 173 4.8 12.9 0.00 0.89 0.03 76 1007.9
20260506095244 13 170 6.4 12.9 0.00 0.89 0.03 75 1007.9
20260506095202 13 196 4.8 14.5 0.00 0.89 0.03 75 1007.9
20260506095125 13 152 4.8 14.5 0.00 0.89 0.03 76 1007.8
20260506095044 13 172 6.4 14.5 0.00 0.89 0.03 75 1007.8
20260506095006 13 159 6.4 16.1 0.00 0.89 0.03 75 1007.8
20260506094705 13 215 6.4 16.1 0.00 0.89 0.03 75 1007.8
20260506094604 13 215 6.4 16.1 0.00 0.89 0.03 75 1007.8
20260506094518 14 216 8.0 16.1 0.00 0.89 0.03 76 1007.8
20260506094403 14 188 8.0 16.1 0.00 0.89 0.03 75 1007.8
20260506094301 14 194 8.0 16.1 0.00 0.89 0.03 75 1007.8
20260506094202 14 216 8.0 16.1 0.00 0.89 0.03 75 1007.8
20260506094058 14 227 8.0 16.1 0.00 0.89 0.03 75 1007.8
20260506093956 14 217 8.0 16.1 0.00 0.89 0.03 75 1007.8
20260506093900 14 177 8.0 16.1 0.00 0.89 0.03 75 1007.7
20260506093757 14 198 8.0 16.1 0.00 0.89 0.03 75 1007.8
20260506093655 14 236 8.0 16.1 0.00 0.89 0.03 74 1007.8
20260506093559 14 186 8.0 16.1 0.00 0.89 0.03 74 1007.8
20260506093511 14 216 6.4 16.1 0.00 0.89 0.03 74 1007.8
20260506093429 14 217 6.4 16.1 0.00 0.89 0.03 74 1007.7
20260506093350 14 217 6.4 16.1 0.00 0.89 0.03 75 1007.7
20260506093254 14 205 6.4 16.1 0.00 0.89 0.03 74 1007.7
20260506093223 14 182 4.8 16.1 0.00 0.89 0.03 74 1007.7
20260506093120 14 188 4.8 16.1 0.00 0.89 0.03 74 1007.7
20260506093034 14 215 4.8 16.1 0.00 0.89 0.03 74 1007.7
20260506092742 14 215 4.8 12.9 0.00 0.89 0.03 74 1007.7
20260506092641 14 187 3.2 11.3 0.00 0.89 0.03 75 1007.7
20260506092537 14 217 3.2 11.3 0.00 0.89 0.03 76 1007.7
20260506092437 14 217 3.2 11.3 0.00 0.89 0.03 76 1007.7
20260506092334 14 215 3.2 11.3 0.00 0.89 0.03 77 1007.7
20260506092234 14 267 3.2 11.3 0.00 0.89 0.03 76 1007.7
20260506092135 13 247 3.2 8.0 0.00 0.89 0.03 77 1007.7
20260506092034 13 214 3.2 8.0 0.00 0.89 0.03 77 1007.6
20260506091934 13 214 3.2 9.7 0.00 0.89 0.03 77 1007.7
20260506091832 13 215 3.2 9.7 0.00 0.89 0.03 77 1007.8
20260506091733 13 180 3.2 9.7 0.00 0.89 0.03 77 1007.8
20260506091631 13 153 3.2 9.7 0.00 0.89 0.03 78 1007.8
20260506091537 13 152 3.2 9.7 0.00 0.89 0.03 78 1007.8
20260506091433 13 159 3.2 9.7 0.00 0.89 0.03 78 1007.8
20260506091331 13 208 3.2 9.7 0.00 0.89 0.03 78 1007.7
20260506091225 13 231 3.2 9.7 0.00 0.89 0.03 78 1007.7
20260506091123 13 230 4.8 9.7 0.00 0.89 0.03 78 1007.7
20260506091026 13 213 4.8 9.7 0.00 0.89 0.03 78 1007.8
20260506090923 13 164 4.8 9.7 0.00 0.89 0.03 77 1007.8
20260506090821 13 217 4.8 9.7 0.00 0.89 0.03 77 1007.8
20260506090717 13 215 4.8 9.7 0.00 0.89 0.03 77 1007.8
20260506090621 13 236 3.2 8.0 0.00 0.89 0.03 78 1007.8
20260506090531 13 192 3.2 8.0 0.00 0.89 0.03 78 1007.7
20260506090415 13 217 3.2 8.0 0.00 0.89 0.03 78 1007.7
20260506090313 13 242 3.2 8.0 0.00 0.89 0.03 78 1007.7
20260506090210 13 212 3.2 6.4 0.00 0.89 0.03 79 1007.8
20260506090113 13 134 3.2 6.4 0.00 0.89 0.03 79 1007.8
20260506090029 13 152 1.6 6.4 0.00 0.89 0.03 78 1007.7
20260506085910 13 160 1.6 6.4 0.00 0.89 0.03 79 1007.7
20260506085809 13 217 1.6 6.4 0.00 0.89 0.03 78 1007.8
20260506085709 13 217 1.6 6.4 0.00 0.89 0.03 79 1007.8
20260506085609 13 217 1.6 6.4 0.00 0.89 0.03 78 1007.8
20260506085524 13 224 1.6 6.4 0.00 0.89 0.03 79 1007.8
20260506085406 13 217 1.6 6.4 0.00 0.89 0.03 80 1007.8
20260506085306 13 215 1.6 6.4 0.00 0.89 0.03 80 1007.7
20260506085206 13 215 1.6 6.4 0.00 0.89 0.03 79 1007.7
20260506085105 13 215 1.6 6.4 0.00 0.89 0.03 79 1007.8
20260506085002 13 215 1.6 6.4 0.00 0.89 0.03 79 1007.8
20260506084906 13 215 3.2 6.4 0.00 0.89 0.03 80 1007.8
20260506084758 13 212 3.2 6.4 0.00 0.89 0.03 80 1007.8
20260506084655 13 212 3.2 6.4 0.00 0.89 0.03 80 1007.8
20260506084555 13 212 3.2 8.0 0.00 0.89 0.03 80 1007.8
20260506084446 13 167 3.2 8.0 0.00 0.89 0.03 80 1007.8
20260506084347 13 151 3.2 8.0 0.00 0.89 0.03 80 1007.7
20260506084248 13 151 3.2 8.0 0.00 0.89 0.03 81 1007.8
20260506084145 13 173 3.2 8.0 0.00 0.89 0.03 81 1007.8
20260506084047 12 158 4.8 8.0 0.00 0.89 0.03 81 1007.8
20260506083945 12 168 4.8 8.0 0.00 0.89 0.03 81 1007.8
20260506083845 12 158 4.8 8.0 0.00 0.89 0.03 81 1007.9
20260506083746 12 217 4.8 11.3 0.00 0.89 0.03 80 1007.8
20260506083644 12 236 4.8 11.3 0.00 0.89 0.03 81 1007.8
20260506083544 13 217 4.8 11.3 0.00 0.89 0.03 81 1007.8
20260506083440 13 170 4.8 11.3 0.00 0.89 0.03 81 1007.8
20260506083340 12 216 4.8 11.3 0.00 0.89 0.03 82 1007.8
20260506083239 12 216 4.8 11.3 0.00 0.89 0.03 82 1007.8
20260506083137 12 217 4.8 11.3 0.00 0.89 0.03 82 1007.8
20260506083037 12 215 4.8 11.3 0.00 0.89 0.03 82 1007.8
20260506082937 12 186 4.8 11.3 0.00 0.89 0.03 81 1007.8
20260506082836 12 191 3.2 11.3 0.00 0.89 0.03 81 1007.9
20260506082740 12 212 3.2 9.7 0.00 0.89 0.03 81 1007.8
20260506082638 12 196 3.2 9.7 0.00 0.89 0.03 82 1007.8
20260506082536 12 156 3.2 9.7 0.00 0.89 0.03 82 1007.9
20260506082437 12 195 4.8 9.7 0.00 0.89 0.03 82 1007.8
20260506082333 12 208 4.8 11.3 0.00 0.89 0.03 82 1007.8
20260506082233 12 215 4.8 11.3 0.00 0.89 0.03 82 1007.8
20260506082132 12 215 4.8 11.3 0.00 0.89 0.03 82 1007.8